Time,TemperatureF,DewpointF,PressureIn,WindDirection,WindDirectionDegrees,WindSpeedMPH,WindSpeedGustMPH,Humidity,HourlyPrecipIn,Conditions,Clouds,dailyrainin,SoftwareType,DateUTC
2013-01-25 00:00:00,64.5,57.9,30.31,West,276,0.0,0.0,79,0.00,,---,0.00,VWS V14.01,2013-01-25 05:00:00,
2013-01-25 00:01:00,60.4,52.6,30.35,NW,325,0.0,2.2,75,0.00,,---,0.00,VWS V14.01,2013-01-25 05:01:00,
2013-01-25 00:02:00,64.8,58.2,30.30,North,359,0.9,3.2,79,0.00,,---,0.00,VWS V14.01,2013-01-25 05:02:00,
2013-01-25 00:03:00,60.4,52.7,30.35,NW,325,0.0,0.0,76,0.00,,---,0.00,VWS V14.01,2013-01-25 05:03:00,
2013-01-25 00:04:00,64.8,58.1,30.31,NNW,338,1.8,3.2,79,0.00,,---,0.00,VWS V14.01,2013-01-25 05:04:00,
2013-01-25 00:05:00,64.8,58.1,30.30,NNW,335,0.7,3.2,79,0.00,,---,0.00,VWS V14.01,2013-01-25 05:05:00,
2013-01-25 00:06:00,60.5,52.8,30.35,NW,325,0.0,0.0,76,0.00,,---,0.00,VWS V14.01,2013-01-25 05:06:00,
2013-01-25 00:07:00,64.9,58.2,30.30,North,354,1.2,3.2,79,0.00,,---,0.00,VWS V14.01,2013-01-25 05:07:00,
2013-01-25 00:08:00,60.5,52.8,30.35,NW,325,0.0,0.0,76,0.00,,---,0.00,VWS V14.01,2013-01-25 05:08:00,
2013-01-25 00:09:00,64.8,58.1,30.30,NW,308,0.0,3.2,79,0.00,,---,0.00,VWS V14.01,2013-01-25 05:09:00,
2013-01-25 00:10:00,65.0,58.3,30.30,NW,308,0.0,3.2,79,0.00,,---,0.00,VWS V14.01,2013-01-25 05:10:00,
2013-01-25 00:11:00,60.6,52.9,30.34,NW,325,0.0,0.0,76,0.00,,---,0.00,VWS V14.01,2013-01-25 05:11:00,
2013-01-25 00:12:00,64.9,58.1,30.30,NW,309,1.1,3.2,79,0.00,,---,0.00,VWS V14.01,2013-01-25 05:12:00,
2013-01-25 00:13:00,60.5,52.8,30.34,NW,325,0.0,0.0,76,0.00,,---,0.00,VWS V14.01,2013-01-25 05:13:00,
2013-01-25 00:16:00,60.5,52.8,30.35,NW,325,0.0,0.0,76,0.00,,---,0.00,VWS V14.01,2013-01-25 05:16:00,
2013-01-25 00:18:00,60.5,52.8,30.34,NW,325,0.0,0.0,76,0.00,,---,0.00,VWS V14.01,2013-01-25 05:18:00,
2013-01-25 00:21:00,60.4,52.7,30.34,NW,325,0.0,0.0,76,0.00,,---,0.00,VWS V14.01,2013-01-25 05:21:00,
2013-01-25 00:23:00,60.3,52.6,30.34,NW,325,0.0,0.0,76,0.00,,---,0.00,VWS V14.01,2013-01-25 05:23:00,
2013-01-25 00:26:00,60.3,52.6,30.34,NW,325,0.0,0.0,76,0.00,,---,0.00,VWS V14.01,2013-01-25 05:26:00,
2013-01-25 00:28:00,60.2,52.5,30.34,NW,325,0.0,0.0,76,0.00,,---,0.00,VWS V14.01,2013-01-25 05:28:00,
2013-01-25 00:31:00,60.0,52.4,30.34,NW,325,0.0,0.0,76,0.00,,---,0.00,VWS V14.01,2013-01-25 05:31:00,
2013-01-25 00:32:00,60.0,52.4,30.34,NW,325,0.0,0.0,76,0.00,,---,0.00,VWS V14.01,2013-01-25 05:32:00,
2013-01-25 00:33:00,60.0,52.4,30.34,NW,325,0.0,0.0,76,0.00,,---,0.00,VWS V14.01,2013-01-25 05:33:00,
2013-01-25 00:34:00,60.0,52.4,30.34,NW,325,0.0,0.0,76,0.00,,---,0.00,VWS V14.01,2013-01-25 05:34:00,
2013-01-25 00:36:00,60.0,52.5,30.34,NW,325,0.0,0.0,76,0.00,,---,0.00,VWS V14.01,2013-01-25 05:36:00,
2013-01-25 00:37:00,60.0,52.5,30.34,NW,325,0.0,0.0,76,0.00,,---,0.00,VWS V14.01,2013-01-25 05:37:00,
2013-01-25 00:38:00,59.9,52.5,30.34,NW,325,0.0,0.0,76,0.00,,---,0.00,VWS V14.01,2013-01-25 05:38:00,
2013-01-25 00:39:00,59.8,52.3,30.34,NW,325,0.0,0.0,76,0.00,,---,0.00,VWS V14.01,2013-01-25 05:39:00,
2013-01-25 00:42:00,59.8,52.4,30.34,NW,325,0.0,0.0,76,0.00,,---,0.00,VWS V14.01,2013-01-25 05:42:00,
2013-01-25 00:43:00,59.8,52.5,30.34,NW,325,0.0,0.0,77,0.00,,---,0.00,VWS V14.01,2013-01-25 05:43:00,
2013-01-25 00:44:00,59.8,52.5,30.34,NW,325,0.0,0.0,77,0.00,,---,0.00,VWS V14.01,2013-01-25 05:44:00,
2013-01-25 00:47:00,59.7,52.4,30.34,NW,325,0.0,0.0,77,0.00,,---,0.00,VWS V14.01,2013-01-25 05:47:00,
2013-01-25 00:49:00,59.5,52.3,30.34,NW,325,0.0,0.0,77,0.00,,---,0.00,VWS V14.01,2013-01-25 05:49:00,
2013-01-25 00:52:00,59.5,52.3,30.34,NW,325,0.0,0.0,77,0.00,,---,0.00,VWS V14.01,2013-01-25 05:52:00,
2013-01-25 00:54:00,59.5,52.4,30.34,NW,325,0.0,0.0,77,0.00,,---,0.00,VWS V14.01,2013-01-25 05:54:00,
2013-01-25 00:57:00,59.4,52.4,30.34,NW,325,0.0,0.0,78,0.00,,---,0.00,VWS V14.01,2013-01-25 05:57:00,
2013-01-25 00:59:00,59.4,52.5,30.34,NW,325,0.0,0.0,78,0.00,,---,0.00,VWS V14.01,2013-01-25 05:59:00,
2013-01-25 01:02:00,59.4,52.5,30.34,NW,325,0.0,0.0,78,0.00,,---,0.00,VWS V14.01,2013-01-25 06:02:00,
2013-01-25 01:04:00,59.5,52.6,30.34,NW,325,0.0,0.0,78,0.00,,---,0.00,VWS V14.01,2013-01-25 06:04:00,
2013-01-25 01:07:00,59.3,52.5,30.35,NW,325,0.0,0.0,78,0.00,,---,0.00,VWS V14.01,2013-01-25 06:07:00,
2013-01-25 01:09:00,59.3,52.6,30.35,NW,325,0.0,0.0,78,0.00,,---,0.00,VWS V14.01,2013-01-25 06:09:00,
2013-01-25 01:12:00,59.3,52.7,30.34,North,6,0.0,0.7,79,0.00,,---,0.00,VWS V14.01,2013-01-25 06:12:00,
2013-01-25 01:14:00,59.3,52.7,30.34,North,6,0.0,0.0,79,0.00,,---,0.00,VWS V14.01,2013-01-25 06:14:00,
2013-01-25 01:17:00,59.1,52.5,30.34,North,6,0.0,0.0,79,0.00,,---,0.00,VWS V14.01,2013-01-25 06:17:00,
2013-01-25 01:19:00,59.2,52.6,30.34,North,6,0.0,0.0,79,0.00,,---,0.00,VWS V14.01,2013-01-25 06:19:00,
2013-01-25 01:22:00,59.1,52.6,30.34,North,350,0.0,0.0,79,0.00,,---,0.00,VWS V14.01,2013-01-25 06:22:00,
2013-01-25 01:24:00,59.1,52.6,30.34,North,10,0.6,0.7,79,0.00,,---,0.00,VWS V14.01,2013-01-25 06:24:00,
2013-01-25 01:27:00,59.0,52.6,30.34,NNE,17,0.0,0.0,79,0.00,,---,0.00,VWS V14.01,2013-01-25 06:27:00,
2013-01-25 01:29:00,59.0,52.6,30.34,NNE,17,0.0,0.0,79,0.00,,---,0.00,VWS V14.01,2013-01-25 06:29:00,
2013-01-25 01:32:00,58.9,52.6,30.34,NW,322,0.0,0.2,80,0.00,,---,0.00,VWS V14.01,2013-01-25 06:32:00,
2013-01-25 01:34:00,58.9,52.6,30.34,NW,321,0.0,0.6,80,0.00,,---,0.00,VWS V14.01,2013-01-25 06:34:00,
2013-01-25 01:37:00,59.1,52.8,30.34,NW,321,0.0,0.0,80,0.00,,---,0.00,VWS V14.01,2013-01-25 06:37:00,
2013-01-25 01:39:00,59.1,52.8,30.34,NW,321,0.0,0.0,80,0.00,,---,0.00,VWS V14.01,2013-01-25 06:39:00,
2013-01-25 01:42:00,59.2,52.9,30.34,NW,321,0.0,0.0,80,0.00,,---,0.00,VWS V14.01,2013-01-25 06:42:00,
2013-01-25 01:43:00,59.2,52.9,30.34,NW,321,0.0,0.0,80,0.00,,---,0.00,VWS V14.01,2013-01-25 06:43:00,
2013-01-25 01:44:00,59.2,52.9,30.34,NW,321,0.0,0.0,80,0.00,,---,0.00,VWS V14.01,2013-01-25 06:44:00,
2013-01-25 01:48:00,59.1,52.9,30.34,NW,321,0.0,0.0,80,0.00,,---,0.00,VWS V14.01,2013-01-25 06:48:00,
2013-01-25 01:49:00,59.1,52.9,30.34,North,4,1.3,2.6,80,0.00,,---,0.00,VWS V14.01,2013-01-25 06:49:00,
2013-01-25 01:50:00,59.2,53.0,30.34,NNW,333,2.2,2.6,80,0.00,,---,0.00,VWS V14.01,2013-01-25 06:50:00,
2013-01-25 01:53:00,59.2,52.9,30.34,NW,323,0.7,1.4,80,0.00,,---,0.00,VWS V14.01,2013-01-25 06:53:00,
2013-01-25 01:55:00,59.4,53.1,30.34,North,8,0.0,0.6,80,0.00,,---,0.00,VWS V14.01,2013-01-25 06:55:00,
2013-01-25 01:58:00,59.3,52.9,30.34,NNW,347,0.0,0.0,79,0.00,,---,0.00,VWS V14.01,2013-01-25 06:58:00,
2013-01-25 02:00:00,59.3,53.0,30.34,NNW,347,0.0,0.0,80,0.00,,---,0.00,VWS V14.01,2013-01-25 07:00:00,
2013-01-25 02:03:00,59.5,53.1,30.33,NNW,347,0.0,0.0,79,0.00,,---,0.00,VWS V14.01,2013-01-25 07:03:00,
2013-01-25 02:05:00,59.5,53.1,30.34,North,356,0.0,0.9,79,0.00,,---,0.00,VWS V14.01,2013-01-25 07:05:00,
2013-01-25 02:08:00,59.3,52.9,30.34,North,359,0.0,0.0,79,0.00,,---,0.00,VWS V14.01,2013-01-25 07:08:00,
2013-01-25 02:09:00,59.4,53.0,30.34,North,359,0.0,0.0,79,0.00,,---,0.00,VWS V14.01,2013-01-25 07:09:00,
2013-01-25 02:10:00,59.4,53.0,30.34,North,359,1.4,1.6,79,0.00,,---,0.00,VWS V14.01,2013-01-25 07:10:00,
2013-01-25 02:13:00,59.4,53.0,30.34,North,8,0.7,1.0,79,0.00,,---,0.00,VWS V14.01,2013-01-25 07:13:00,
2013-01-25 02:14:00,59.3,52.9,30.34,North,8,0.0,0.0,79,0.00,,---,0.00,VWS V14.01,2013-01-25 07:14:00,
2013-01-25 02:15:00,59.4,52.9,30.34,NNW,339,2.1,2.2,79,0.00,,---,0.00,VWS V14.01,2013-01-25 07:15:00,
2013-01-25 02:18:00,59.5,52.9,30.33,NNW,330,1.0,2.8,79,0.00,,---,0.00,VWS V14.01,2013-01-25 07:18:00,
2013-01-25 02:19:00,59.4,52.8,30.33,NNW,339,1.4,1.6,79,0.00,,---,0.00,VWS V14.01,2013-01-25 07:19:00,
2013-01-25 02:20:00,59.5,52.9,30.33,NNW,339,0.8,1.0,79,0.00,,---,0.00,VWS V14.01,2013-01-25 07:20:00,
2013-01-25 02:23:00,59.5,52.8,30.34,NW,323,0.0,1.2,78,0.00,,---,0.00,VWS V14.01,2013-01-25 07:23:00,
2013-01-25 02:24:00,59.4,52.7,30.34,NW,323,0.0,0.0,78,0.00,,---,0.00,VWS V14.01,2013-01-25 07:24:00,
2013-01-25 02:25:00,59.5,52.8,30.34,West,269,0.0,0.6,78,0.00,,---,0.00,VWS V14.01,2013-01-25 07:25:00,
2013-01-25 02:29:00,59.5,52.7,30.34,NW,311,0.0,1.3,78,0.00,,---,0.00,VWS V14.01,2013-01-25 07:29:00,
2013-01-25 02:30:00,59.7,52.9,30.33,NNW,347,0.0,1.1,78,0.00,,---,0.00,VWS V14.01,2013-01-25 07:30:00,
2013-01-25 02:34:00,59.4,52.5,30.33,ENE,68,0.0,1.4,78,0.00,,---,0.00,VWS V14.01,2013-01-25 07:34:00,
2013-01-25 02:35:00,59.6,52.7,30.33,NNE,27,0.4,1.9,78,0.00,,---,0.00,VWS V14.01,2013-01-25 07:35:00,
2013-01-25 02:39:00,59.6,52.7,30.33,North,0,0.0,0.4,78,0.00,,---,0.00,VWS V14.01,2013-01-25 07:39:00,
2013-01-25 02:40:00,59.5,52.6,30.33,NW,307,2.9,3.3,78,0.00,,---,0.00,VWS V14.01,2013-01-25 07:40:00,
2013-01-25 02:44:00,59.7,52.7,30.33,WNW,298,1.0,1.1,78,0.00,,---,0.00,VWS V14.01,2013-01-25 07:44:00,
2013-01-25 02:45:00,59.8,52.8,30.34,WNW,284,0.0,0.7,78,0.00,,---,0.00,VWS V14.01,2013-01-25 07:45:00,
2013-01-25 02:49:00,59.8,52.7,30.33,NNW,336,0.0,0.9,77,0.00,,---,0.00,VWS V14.01,2013-01-25 07:49:00,
2013-01-25 02:50:00,59.7,52.6,30.33,North,0,0.7,1.9,77,0.00,,---,0.00,VWS V14.01,2013-01-25 07:50:00,
2013-01-25 02:54:00,59.7,52.6,30.33,NNW,342,0.7,2.3,77,0.00,,---,0.00,VWS V14.01,2013-01-25 07:54:00,
2013-01-25 02:56:00,59.7,52.6,30.33,NNE,21,0.0,1.2,77,0.00,,---,0.00,VWS V14.01,2013-01-25 07:56:00,
2013-01-25 03:00:00,59.7,52.5,30.34,NW,319,1.6,1.6,77,0.00,,---,0.00,VWS V14.01,2013-01-25 08:00:00,
2013-01-25 03:01:00,59.9,52.8,30.34,NW,325,0.7,0.9,77,0.00,,---,0.00,VWS V14.01,2013-01-25 08:01:00,
2013-01-25 03:05:00,59.7,52.5,30.33,NW,321,0.0,0.0,77,0.00,,---,0.00,VWS V14.01,2013-01-25 08:05:00,
2013-01-25 03:06:00,59.9,52.7,30.33,NW,316,0.9,1.2,77,0.00,,---,0.00,VWS V14.01,2013-01-25 08:06:00,
2013-01-25 03:10:00,59.9,52.6,30.33,NW,318,0.6,1.9,77,0.00,,---,0.00,VWS V14.01,2013-01-25 08:10:00,
2013-01-25 03:11:00,59.9,52.6,30.33,WNW,300,2.2,2.2,77,0.00,,---,0.00,VWS V14.01,2013-01-25 08:11:00,
2013-01-25 03:15:00,59.9,52.5,30.33,NW,314,0.0,0.0,76,0.00,,---,0.00,VWS V14.01,2013-01-25 08:15:00,
2013-01-25 03:16:00,60.1,52.7,30.33,NW,308,0.4,0.4,76,0.00,,---,0.00,VWS V14.01,2013-01-25 08:16:00,
2013-01-25 03:20:00,60.1,52.7,30.33,NNW,346,0.0,0.0,76,0.00,,---,0.00,VWS V14.01,2013-01-25 08:20:00,
2013-01-25 03:21:00,60.0,52.6,30.33,NNW,346,0.0,0.0,76,0.00,,---,0.00,VWS V14.01,2013-01-25 08:21:00,
2013-01-25 03:22:00,60.0,52.6,30.33,NNW,346,0.0,1.0,76,0.00,,---,0.00,VWS V14.01,2013-01-25 08:22:00,
2013-01-25 03:25:00,59.8,52.4,30.33,NW,309,0.0,1.2,76,0.00,,---,0.00,VWS V14.01,2013-01-25 08:25:00,
2013-01-25 03:26:00,59.8,52.4,30.33,NW,309,0.0,1.2,76,0.00,,---,0.00,VWS V14.01,2013-01-25 08:26:00,
2013-01-25 03:27:00,59.9,52.5,30.33,NW,309,0.0,0.0,76,0.00,,---,0.00,VWS V14.01,2013-01-25 08:27:00,
2013-01-25 03:31:00,59.8,52.4,30.33,WNW,284,0.0,1.6,77,0.00,,---,0.00,VWS V14.01,2013-01-25 08:31:00,
2013-01-25 03:32:00,59.7,52.3,30.33,NNW,339,0.0,1.8,77,0.00,,---,0.00,VWS V14.01,2013-01-25 08:32:00,
2013-01-25 03:36:00,59.8,52.5,30.32,NNW,329,1.3,2.4,77,0.00,,---,0.00,VWS V14.01,2013-01-25 08:36:00,
2013-01-25 03:37:00,59.8,52.5,30.33,NNW,336,1.0,1.1,77,0.00,,---,0.00,VWS V14.01,2013-01-25 08:37:00,
2013-01-25 03:41:00,59.6,52.3,30.32,NNW,345,0.6,0.9,77,0.00,,---,0.00,VWS V14.01,2013-01-25 08:41:00,
2013-01-25 03:42:00,59.6,52.3,30.33,North,8,1.5,2.4,77,0.00,,---,0.00,VWS V14.01,2013-01-25 08:42:00,
2013-01-25 03:46:00,59.8,52.5,30.33,NW,314,0.0,0.7,77,0.00,,---,0.00,VWS V14.01,2013-01-25 08:46:00,
2013-01-25 03:47:00,59.6,52.3,30.33,NW,314,0.0,0.7,77,0.00,,---,0.00,VWS V14.01,2013-01-25 08:47:00,
2013-01-25 03:51:00,59.5,52.2,30.33,WNW,288,0.3,0.6,77,0.00,,---,0.00,VWS V14.01,2013-01-25 08:51:00,
2013-01-25 03:52:00,59.6,52.3,30.32,WNW,288,0.0,0.6,77,0.00,,---,0.00,VWS V14.01,2013-01-25 08:52:00,
2013-01-25 03:56:00,59.5,52.2,30.33,North,3,3.0,3.0,77,0.00,,---,0.00,VWS V14.01,2013-01-25 08:56:00,
2013-01-25 03:57:00,59.5,52.2,30.32,NW,325,1.1,3.2,77,0.00,,---,0.00,VWS V14.01,2013-01-25 08:57:00,
2013-01-25 03:58:00,59.6,52.3,30.32,NW,319,1.3,3.5,77,0.00,,---,0.00,VWS V14.01,2013-01-25 08:58:00,
2013-01-25 04:01:00,59.5,52.2,30.32,North,352,0.9,2.4,77,0.00,,---,0.00,VWS V14.01,2013-01-25 09:01:00,
2013-01-25 04:02:00,59.5,52.1,30.32,NNW,340,0.4,2.4,76,0.00,,---,0.00,VWS V14.01,2013-01-25 09:02:00,
2013-01-25 04:03:00,59.5,52.1,30.32,WNW,295,0.0,1.0,76,0.00,,---,0.00,VWS V14.01,2013-01-25 09:03:00,
2013-01-25 04:06:00,59.6,52.1,30.32,North,10,0.0,0.0,76,0.00,,---,0.00,VWS V14.01,2013-01-25 09:06:00,
2013-01-25 04:07:00,59.5,52.0,30.32,North,10,0.0,0.0,76,0.00,,---,0.00,VWS V14.01,2013-01-25 09:07:00,
2013-01-25 04:08:00,59.7,52.2,30.32,North,6,0.0,1.5,76,0.00,,---,0.00,VWS V14.01,2013-01-25 09:08:00,
2013-01-25 04:11:00,59.6,52.0,30.33,NNW,336,0.0,0.0,76,0.00,,---,0.00,VWS V14.01,2013-01-25 09:11:00,
2013-01-25 04:12:00,59.6,52.0,30.33,NNW,336,0.0,0.0,76,0.00,,---,0.00,VWS V14.01,2013-01-25 09:12:00,
2013-01-25 04:13:00,59.5,51.9,30.33,NNW,333,0.8,2.4,76,0.00,,---,0.00,VWS V14.01,2013-01-25 09:13:00,
2013-01-25 04:17:00,59.5,51.9,30.32,North,352,0.7,0.7,76,0.00,,---,0.00,VWS V14.01,2013-01-25 09:17:00,
2013-01-25 04:18:00,59.4,51.8,30.32,WNW,295,0.0,0.0,76,0.00,,---,0.00,VWS V14.01,2013-01-25 09:18:00,
2013-01-25 04:22:00,59.5,51.9,30.32,NNW,347,0.0,0.0,76,0.00,,---,0.00,VWS V14.01,2013-01-25 09:22:00,
2013-01-25 04:23:00,59.6,52.0,30.32,NNW,347,0.0,0.0,76,0.00,,---,0.00,VWS V14.01,2013-01-25 09:23:00,
2013-01-25 04:27:00,59.6,52.1,30.32,NNW,347,0.0,0.0,76,0.00,,---,0.00,VWS V14.01,2013-01-25 09:27:00,
2013-01-25 04:28:00,59.6,52.1,30.32,NNW,347,0.0,0.0,76,0.00,,---,0.00,VWS V14.01,2013-01-25 09:28:00,
2013-01-25 04:32:00,59.8,52.2,30.32,NNW,335,0.8,0.9,76,0.00,,---,0.00,VWS V14.01,2013-01-25 09:32:00,
2013-01-25 04:33:00,59.8,52.2,30.32,NNW,346,0.0,1.6,76,0.00,,---,0.00,VWS V14.01,2013-01-25 09:33:00,
2013-01-25 04:37:00,60.0,52.3,30.33,NW,326,1.1,1.8,76,0.00,,---,0.00,VWS V14.01,2013-01-25 09:37:00,
2013-01-25 04:38:00,60.1,52.4,30.33,NNE,18,0.2,0.2,76,0.00,,---,0.00,VWS V14.01,2013-01-25 09:38:00,
2013-01-25 04:42:00,60.1,52.3,30.32,North,350,0.0,0.4,76,0.00,,---,0.00,VWS V14.01,2013-01-25 09:42:00,
2013-01-25 04:43:00,60.1,52.3,30.32,North,350,0.0,0.4,76,0.00,,---,0.00,VWS V14.01,2013-01-25 09:43:00,
2013-01-25 04:44:00,60.2,52.4,30.32,NW,308,0.0,1.4,76,0.00,,---,0.00,VWS V14.01,2013-01-25 09:44:00,
2013-01-25 04:47:00,60.3,52.5,30.33,NNW,330,2.7,3.0,75,0.00,,---,0.00,VWS V14.01,2013-01-25 09:47:00,
2013-01-25 04:48:00,60.3,52.5,30.32,NW,321,1.2,3.0,75,0.00,,---,0.00,VWS V14.01,2013-01-25 09:48:00,
2013-01-25 04:49:00,60.4,52.5,30.33,North,4,1.8,1.8,75,0.00,,---,0.00,VWS V14.01,2013-01-25 09:49:00,
2013-01-25 04:52:00,60.5,52.6,30.32,NW,315,1.3,2.0,75,0.00,,---,0.00,VWS V14.01,2013-01-25 09:52:00,
2013-01-25 04:53:00,60.4,52.5,30.32,NW,326,2.6,3.2,75,0.00,,---,0.00,VWS V14.01,2013-01-25 09:53:00,
2013-01-25 04:54:00,60.5,52.5,30.33,North,359,2.9,3.1,75,0.00,,---,0.00,VWS V14.01,2013-01-25 09:54:00,
2013-01-25 04:57:00,60.5,52.5,30.33,NW,322,0.4,1.4,75,0.00,,---,0.00,VWS V14.01,2013-01-25 09:57:00,
2013-01-25 04:58:00,60.5,52.5,30.33,NNW,347,1.0,1.0,75,0.00,,---,0.00,VWS V14.01,2013-01-25 09:58:00,
2013-01-25 04:59:00,60.6,52.6,30.33,NNW,335,1.4,2.2,75,0.00,,---,0.00,VWS V14.01,2013-01-25 09:59:00,
2013-01-25 05:02:00,60.7,52.5,30.33,NE,53,1.8,4.7,74,0.00,,---,0.00,VWS V14.01,2013-01-25 10:02:00,
2013-01-25 05:03:00,60.6,52.4,30.33,NNW,340,2.2,2.9,74,0.00,,---,0.00,VWS V14.01,2013-01-25 10:03:00,
2013-01-25 05:04:00,60.5,52.3,30.32,NNE,13,1.9,2.1,74,0.00,,---,0.00,VWS V14.01,2013-01-25 10:04:00,
2013-01-25 05:07:00,60.6,52.3,30.32,North,352,0.8,1.4,74,0.00,,---,0.00,VWS V14.01,2013-01-25 10:07:00,
2013-01-25 05:08:00,60.5,52.2,30.32,NW,318,2.3,2.3,74,0.00,,---,0.00,VWS V14.01,2013-01-25 10:08:00,
2013-01-25 05:09:00,60.6,52.3,30.32,North,353,1.1,2.1,74,0.00,,---,0.00,VWS V14.01,2013-01-25 10:09:00,
2013-01-25 05:12:00,60.5,52.2,30.32,NNW,333,1.1,1.1,74,0.00,,---,0.00,VWS V14.01,2013-01-25 10:12:00,
2013-01-25 05:13:00,60.7,52.4,30.32,NNW,343,2.0,2.5,74,0.00,,---,0.00,VWS V14.01,2013-01-25 10:13:00,
2013-01-25 05:14:00,60.5,52.2,30.32,NNW,338,1.0,1.7,74,0.00,,---,0.00,VWS V14.01,2013-01-25 10:14:00,
2013-01-25 05:17:00,60.5,52.2,30.32,NNW,338,1.6,2.6,74,0.00,,---,0.00,VWS V14.01,2013-01-25 10:17:00,
2013-01-25 05:18:00,60.5,52.2,30.32,North,350,1.2,2.3,74,0.00,,---,0.00,VWS V14.01,2013-01-25 10:18:00,
2013-01-25 05:19:00,60.5,52.2,30.32,North,350,1.6,1.6,74,0.00,,---,0.00,VWS V14.01,2013-01-25 10:19:00,
2013-01-25 05:22:00,60.5,52.2,30.33,NNW,330,1.4,2.5,74,0.00,,---,0.00,VWS V14.01,2013-01-25 10:22:00,
2013-01-25 05:23:00,60.5,52.2,30.33,NNW,332,1.6,2.6,74,0.00,,---,0.00,VWS V14.01,2013-01-25 10:23:00,
2013-01-25 05:24:00,60.3,52.1,30.33,NW,316,1.2,1.2,74,0.00,,---,0.00,VWS V14.01,2013-01-25 10:24:00,
2013-01-25 05:27:00,60.4,52.2,30.33,NNW,335,2.6,2.6,74,0.00,,---,0.00,VWS V14.01,2013-01-25 10:27:00,
2013-01-25 05:28:00,60.4,52.2,30.32,NNW,328,2.2,2.9,74,0.00,,---,0.00,VWS V14.01,2013-01-25 10:28:00,
2013-01-25 05:29:00,60.3,52.1,30.32,NNW,343,0.9,2.2,74,0.00,,---,0.00,VWS V14.01,2013-01-25 10:29:00,
2013-01-25 05:32:00,60.1,52.0,30.33,NE,44,1.4,1.9,74,0.00,,---,0.00,VWS V14.01,2013-01-25 10:32:00,
2013-01-25 05:33:00,60.1,52.0,30.33,NW,319,0.9,0.9,75,0.00,,---,0.00,VWS V14.01,2013-01-25 10:33:00,
2013-01-25 05:34:00,60.2,52.2,30.33,North,7,1.2,3.0,75,0.00,,---,0.00,VWS V14.01,2013-01-25 10:34:00,
2013-01-25 05:37:00,60.0,52.1,30.33,North,354,0.8,0.9,75,0.00,,---,0.00,VWS V14.01,2013-01-25 10:37:00,
2013-01-25 05:38:00,60.0,52.1,30.33,NNW,343,0.4,1.7,75,0.00,,---,0.00,VWS V14.01,2013-01-25 10:38:00,
2013-01-25 05:39:00,59.8,51.8,30.33,NNW,343,0.0,0.0,75,0.00,,---,0.00,VWS V14.01,2013-01-25 10:39:00,
2013-01-25 05:42:00,59.7,51.7,30.33,NW,312,0.5,1.8,75,0.00,,---,0.00,VWS V14.01,2013-01-25 10:42:00,
2013-01-25 05:43:00,59.7,51.7,30.33,North,349,1.8,2.5,75,0.00,,---,0.00,VWS V14.01,2013-01-25 10:43:00,
2013-01-25 05:44:00,59.7,51.7,30.33,NNE,21,0.3,2.5,75,0.00,,---,0.00,VWS V14.01,2013-01-25 10:44:00,
2013-01-25 05:45:00,59.6,51.7,30.33,NNE,21,0.0,0.3,75,0.00,,---,0.00,VWS V14.01,2013-01-25 10:45:00,
2013-01-25 05:48:00,59.6,51.8,30.33,NNW,347,1.2,1.2,75,0.00,,---,0.00,VWS V14.01,2013-01-25 10:48:00,
2013-01-25 05:49:00,59.5,51.6,30.33,NNW,339,0.8,2.2,75,0.00,,---,0.00,VWS V14.01,2013-01-25 10:49:00,
2013-01-25 05:50:00,59.5,51.6,30.33,NNW,340,2.2,2.4,75,0.00,,---,0.00,VWS V14.01,2013-01-25 10:50:00,
2013-01-25 05:53:00,59.5,51.5,30.33,NW,323,2.9,2.9,75,0.00,,---,0.00,VWS V14.01,2013-01-25 10:53:00,
2013-01-25 05:54:00,59.5,51.4,30.34,NW,314,1.6,3.4,75,0.00,,---,0.00,VWS V14.01,2013-01-25 10:54:00,
2013-01-25 05:55:00,59.4,51.3,30.34,North,356,3.8,4.8,75,0.00,,---,0.00,VWS V14.01,2013-01-25 10:55:00,
2013-01-25 05:58:00,59.5,51.4,30.33,NE,37,1.1,2.2,74,0.00,,---,0.00,VWS V14.01,2013-01-25 10:58:00,
2013-01-25 05:59:00,59.4,51.3,30.33,North,356,1.6,2.7,75,0.00,,---,0.00,VWS V14.01,2013-01-25 10:59:00,
2013-01-25 06:00:00,59.5,51.4,30.33,NNW,329,0.0,0.3,74,0.00,,---,0.00,VWS V14.01,2013-01-25 11:00:00,
2013-01-25 06:03:00,59.5,51.4,30.33,NW,322,2.8,2.8,74,0.00,,---,0.00,VWS V14.01,2013-01-25 11:03:00,
2013-01-25 06:04:00,59.5,51.4,30.33,NW,325,1.4,1.5,75,0.00,,---,0.00,VWS V14.01,2013-01-25 11:04:00,
2013-01-25 06:05:00,59.4,51.3,30.33,NNW,330,2.6,2.7,75,0.00,,---,0.00,VWS V14.01,2013-01-25 11:05:00,
2013-01-25 06:08:00,59.5,51.5,30.33,NNW,329,1.3,2.7,75,0.00,,---,0.00,VWS V14.01,2013-01-25 11:08:00,
2013-01-25 06:09:00,59.5,51.5,30.33,NNW,336,3.6,3.6,75,0.00,,---,0.00,VWS V14.01,2013-01-25 11:09:00,
2013-01-25 06:10:00,59.4,51.5,30.33,NNW,328,1.9,2.5,75,0.00,,---,0.00,VWS V14.01,2013-01-25 11:10:00,
2013-01-25 06:13:00,59.3,51.4,30.34,NNW,329,2.1,2.6,75,0.00,,---,0.00,VWS V14.01,2013-01-25 11:13:00,
2013-01-25 06:14:00,59.5,51.6,30.34,NNW,332,3.5,4.0,75,0.00,,---,0.00,VWS V14.01,2013-01-25 11:14:00,
2013-01-25 06:15:00,59.5,51.6,30.34,NNW,345,2.8,3.8,75,0.00,,---,0.00,VWS V14.01,2013-01-25 11:15:00,
2013-01-25 06:18:00,59.3,51.3,30.34,NW,315,2.8,4.5,75,0.00,,---,0.00,VWS V14.01,2013-01-25 11:18:00,
2013-01-25 06:19:00,59.2,51.2,30.34,NNW,343,3.3,5.3,75,0.00,,---,0.00,VWS V14.01,2013-01-25 11:19:00,
2013-01-25 06:20:00,59.3,51.3,30.34,NW,305,0.9,2.5,75,0.00,,---,0.00,VWS V14.01,2013-01-25 11:20:00,
2013-01-25 06:23:00,59.3,51.3,30.34,NW,318,2.3,2.3,75,0.00,,---,0.00,VWS V14.01,2013-01-25 11:23:00,
2013-01-25 06:24:00,59.2,51.2,30.34,NNW,340,2.2,2.2,75,0.00,,---,0.00,VWS V14.01,2013-01-25 11:24:00,
2013-01-25 06:25:00,59.3,51.3,30.34,North,349,3.1,3.2,75,0.00,,---,0.00,VWS V14.01,2013-01-25 11:25:00,
2013-01-25 06:28:00,59.2,51.2,30.34,NW,325,1.8,1.8,75,0.00,,---,0.00,VWS V14.01,2013-01-25 11:28:00,
2013-01-25 06:29:00,59.1,51.1,30.34,NW,322,1.2,1.9,75,0.00,,---,0.00,VWS V14.01,2013-01-25 11:29:00,
2013-01-25 06:30:00,59.1,51.2,30.34,NW,318,1.1,3.0,75,0.00,,---,0.00,VWS V14.01,2013-01-25 11:30:00,
2013-01-25 06:33:00,59.1,51.2,30.34,NNW,333,1.7,2.5,75,0.00,,---,0.00,VWS V14.01,2013-01-25 11:33:00,
2013-01-25 06:34:00,59.1,51.2,30.34,NNW,339,1.3,2.2,75,0.00,,---,0.00,VWS V14.01,2013-01-25 11:34:00,
2013-01-25 06:35:00,59.0,51.1,30.34,NW,326,1.4,1.8,75,0.00,,---,0.00,VWS V14.01,2013-01-25 11:35:00,
2013-01-25 06:38:00,59.1,51.2,30.34,North,359,2.7,4.3,75,0.00,,---,0.00,VWS V14.01,2013-01-25 11:38:00,
2013-01-25 06:39:00,59.1,51.2,30.34,North,350,2.9,2.9,75,0.00,,---,0.00,VWS V14.01,2013-01-25 11:39:00,
2013-01-25 06:40:00,59.0,51.1,30.34,NW,323,2.1,3.6,75,0.00,,---,0.00,VWS V14.01,2013-01-25 11:40:00,
2013-01-25 06:43:00,58.9,51.1,30.34,NW,323,3.0,3.0,75,0.00,,---,0.00,VWS V14.01,2013-01-25 11:43:00,
2013-01-25 06:44:00,59.0,51.2,30.34,NNW,335,1.9,2.2,75,0.00,,---,0.00,VWS V14.01,2013-01-25 11:44:00,
2013-01-25 06:45:00,58.9,51.1,30.34,North,350,1.3,2.7,75,0.00,,---,0.00,VWS V14.01,2013-01-25 11:45:00,
2013-01-25 06:48:00,58.8,51.1,30.34,NW,322,1.4,2.1,76,0.00,,---,0.00,VWS V14.01,2013-01-25 11:48:00,
2013-01-25 06:49:00,58.8,51.1,30.34,North,353,1.6,1.7,76,0.00,,---,0.00,VWS V14.01,2013-01-25 11:49:00,
2013-01-25 06:50:00,58.7,51.0,30.34,North,353,1.6,3.0,76,0.00,,---,0.00,VWS V14.01,2013-01-25 11:50:00,
2013-01-25 06:53:00,58.7,51.1,30.34,NNW,338,3.0,4.2,76,0.00,,---,0.00,VWS V14.01,2013-01-25 11:53:00,
2013-01-25 06:54:00,58.7,51.1,30.34,NNW,330,2.5,4.3,76,0.00,,---,0.00,VWS V14.01,2013-01-25 11:54:00,
2013-01-25 06:55:00,58.8,51.3,30.34,North,349,4.0,4.0,76,0.00,,---,0.00,VWS V14.01,2013-01-25 11:55:00,
2013-01-25 06:58:00,58.7,51.2,30.35,NNE,15,1.9,4.5,76,0.00,,---,0.00,VWS V14.01,2013-01-25 11:58:00,
2013-01-25 06:59:00,58.7,51.2,30.35,North,359,3.2,3.2,76,0.00,,---,0.00,VWS V14.01,2013-01-25 11:59:00,
2013-01-25 07:00:00,58.5,51.1,30.35,NNW,345,1.2,1.7,76,0.00,,---,0.00,VWS V14.01,2013-01-25 12:00:00,
2013-01-25 07:04:00,58.4,51.0,30.35,NNW,329,1.5,3.7,76,0.00,,---,0.00,VWS V14.01,2013-01-25 12:04:00,
2013-01-25 07:05:00,58.4,51.1,30.35,North,7,3.4,5.1,77,0.00,,---,0.00,VWS V14.01,2013-01-25 12:05:00,
2013-01-25 07:09:00,58.4,51.2,30.35,NW,319,3.5,4.3,77,0.00,,---,0.00,VWS V14.01,2013-01-25 12:09:00,
2013-01-25 07:10:00,58.4,51.2,30.35,North,356,2.9,2.9,77,0.00,,---,0.00,VWS V14.01,2013-01-25 12:10:00,
2013-01-25 07:11:00,58.3,51.1,30.35,NNW,343,2.1,4.5,77,0.00,,---,0.00,VWS V14.01,2013-01-25 12:11:00,
2013-01-25 07:14:00,58.4,51.2,30.35,NW,319,1.4,1.8,77,0.00,,---,0.00,VWS V14.01,2013-01-25 12:14:00,
2013-01-25 07:15:00,58.4,51.2,30.35,NW,311,1.4,1.8,77,0.00,,---,0.00,VWS V14.01,2013-01-25 12:15:00,
2013-01-25 07:16:00,58.4,51.2,30.35,NW,322,2.0,2.5,77,0.00,,---,0.00,VWS V14.01,2013-01-25 12:16:00,
2013-01-25 07:19:00,58.2,51.1,30.35,North,359,1.5,2.9,77,0.00,,---,0.00,VWS V14.01,2013-01-25 12:19:00,
2013-01-25 07:20:00,58.3,51.2,30.35,NW,316,0.9,2.9,77,0.00,,---,0.00,VWS V14.01,2013-01-25 12:20:00,
2013-01-25 07:21:00,58.3,51.2,30.35,NNW,329,1.8,3.5,77,0.00,,---,0.00,VWS V14.01,2013-01-25 12:21:00,
2013-01-25 07:24:00,58.3,51.2,30.35,NNW,343,0.0,0.6,77,0.00,,---,0.00,VWS V14.01,2013-01-25 12:24:00,
2013-01-25 07:25:00,58.3,51.2,30.35,NNE,14,2.7,2.7,77,0.00,,---,0.00,VWS V14.01,2013-01-25 12:25:00,
2013-01-25 07:26:00,58.4,51.3,30.35,NW,323,2.2,2.9,77,0.00,,---,0.00,VWS V14.01,2013-01-25 12:26:00,
2013-01-25 07:29:00,58.3,51.2,30.35,NE,56,1.6,3.2,77,0.00,,---,0.00,VWS V14.01,2013-01-25 12:29:00,
2013-01-25 07:30:00,58.3,51.2,30.35,NNW,338,1.0,1.0,77,0.00,,---,0.00,VWS V14.01,2013-01-25 12:30:00,
2013-01-25 07:31:00,58.4,51.3,30.36,North,349,2.3,3.9,77,0.00,,---,0.00,VWS V14.01,2013-01-25 12:31:00,
2013-01-25 07:34:00,58.4,51.3,30.36,NW,312,1.6,1.7,77,0.00,,---,0.00,VWS V14.01,2013-01-25 12:34:00,
2013-01-25 07:35:00,58.4,51.3,30.36,NNE,13,2.5,2.7,77,0.00,,---,0.00,VWS V14.01,2013-01-25 12:35:00,
2013-01-25 07:36:00,58.4,51.3,30.36,NW,319,1.4,2.7,77,0.00,,---,0.00,VWS V14.01,2013-01-25 12:36:00,
2013-01-25 07:39:00,58.7,51.5,30.36,NNE,32,2.5,3.9,77,0.00,,---,0.00,VWS V14.01,2013-01-25 12:39:00,
2013-01-25 07:40:00,58.6,51.5,30.36,NNW,329,1.8,2.1,77,0.00,,---,0.00,VWS V14.01,2013-01-25 12:40:00,
2013-01-25 07:42:00,58.7,51.5,30.36,North,1,1.5,3.5,77,0.00,,---,0.00,VWS V14.01,2013-01-25 12:42:00,
2013-01-25 07:44:00,58.7,51.5,30.36,NNW,333,4.7,4.7,77,0.00,,---,0.00,VWS V14.01,2013-01-25 12:44:00,
2013-01-25 07:45:00,58.9,51.6,30.36,NE,46,2.5,2.8,77,0.00,,---,0.00,VWS V14.01,2013-01-25 12:45:00,
2013-01-25 07:46:00,58.7,51.4,30.36,North,0,3.2,3.2,77,0.00,,---,0.00,VWS V14.01,2013-01-25 12:46:00,
2013-01-25 07:49:00,59.0,51.5,30.36,NNE,30,0.7,3.9,76,0.00,,---,0.00,VWS V14.01,2013-01-25 12:49:00,
2013-01-25 07:50:00,58.9,51.4,30.36,NW,326,1.6,1.6,76,0.00,,---,0.00,VWS V14.01,2013-01-25 12:50:00,
2013-01-25 07:51:00,59.0,51.5,30.36,NNW,339,1.0,1.9,76,0.00,,---,0.00,VWS V14.01,2013-01-25 12:51:00,
2013-01-25 07:52:00,59.1,51.5,30.36,NW,308,2.2,2.2,76,0.00,,---,0.00,VWS V14.01,2013-01-25 12:52:00,
2013-01-25 07:55:00,59.3,51.6,30.36,NNE,24,0.2,4.3,76,0.00,,---,0.00,VWS V14.01,2013-01-25 12:55:00,
2013-01-25 07:56:00,59.4,51.5,30.36,NW,321,1.7,4.5,75,0.00,,---,0.00,VWS V14.01,2013-01-25 12:56:00,
2013-01-25 07:57:00,59.4,51.5,30.36,WNW,283,1.7,1.7,75,0.00,,---,0.00,VWS V14.01,2013-01-25 12:57:00,
2013-01-25 08:00:00,59.5,51.5,30.36,NNW,338,2.9,4.3,75,0.00,,---,0.00,VWS V14.01,2013-01-25 13:00:00,
2013-01-25 08:02:00,59.7,51.5,30.36,North,352,1.3,2.7,74,0.00,,---,0.00,VWS V14.01,2013-01-25 13:02:00,
2013-01-25 08:05:00,60.0,51.7,30.36,NNW,338,1.9,3.4,74,0.00,,---,0.00,VWS V14.01,2013-01-25 13:05:00,
2013-01-25 08:07:00,60.0,51.5,30.36,NNW,328,5.2,5.2,74,0.00,,---,0.00,VWS V14.01,2013-01-25 13:07:00,
2013-01-25 08:10:00,60.3,51.7,30.36,NW,314,2.4,2.7,73,0.00,,---,0.00,VWS V14.01,2013-01-25 13:10:00,
2013-01-25 08:12:00,60.5,51.8,30.36,NW,321,4.0,5.8,73,0.00,,---,0.00,VWS V14.01,2013-01-25 13:12:00,
2013-01-25 08:15:00,60.5,51.4,30.36,NNE,27,3.0,5.3,72,0.00,,---,0.00,VWS V14.01,2013-01-25 13:15:00,
2013-01-25 08:17:00,60.8,51.9,30.36,NNE,32,1.3,4.2,72,0.00,,---,0.00,VWS V14.01,2013-01-25 13:17:00,
2013-01-25 08:20:00,61.0,51.8,30.36,NNW,340,0.5,2.2,72,0.00,,---,0.00,VWS V14.01,2013-01-25 13:20:00,
2013-01-25 08:21:00,61.1,51.9,30.36,NNW,333,0.9,2.2,72,0.00,,---,0.00,VWS V14.01,2013-01-25 13:21:00,
2013-01-25 08:22:00,61.2,51.9,30.36,NNE,32,2.5,2.9,71,0.00,,---,0.00,VWS V14.01,2013-01-25 13:22:00,
2013-01-25 08:26:00,61.4,51.9,30.36,WNW,292,2.8,2.8,71,0.00,,---,0.00,VWS V14.01,2013-01-25 13:26:00,
2013-01-25 08:27:00,61.5,51.8,30.36,North,3,5.8,5.8,70,0.00,,---,0.00,VWS V14.01,2013-01-25 13:27:00,
2013-01-25 08:31:00,61.6,51.3,30.36,North,7,4.2,5.9,69,0.00,,---,0.00,VWS V14.01,2013-01-25 13:31:00,
2013-01-25 08:32:00,61.8,51.4,30.36,North,0,5.1,6.2,69,0.00,,---,0.00,VWS V14.01,2013-01-25 13:32:00,
2013-01-25 08:33:00,61.8,51.4,30.36,NNW,339,4.5,6.2,69,0.00,,---,0.00,VWS V14.01,2013-01-25 13:33:00,
2013-01-25 08:36:00,61.7,51.1,30.36,North,359,3.1,8.4,68,0.00,,---,0.00,VWS V14.01,2013-01-25 13:36:00,
2013-01-25 08:38:00,62.0,51.3,30.36,NW,309,3.9,6.3,68,0.00,,---,0.00,VWS V14.01,2013-01-25 13:38:00,
2013-01-25 08:41:00,62.2,51.4,30.36,NNW,333,4.8,7.6,68,0.00,,---,0.00,VWS V14.01,2013-01-25 13:41:00,
2013-01-25 08:43:00,62.3,51.4,30.36,WNW,287,2.5,3.9,67,0.00,,---,0.00,VWS V14.01,2013-01-25 13:43:00,
2013-01-25 08:46:00,62.6,51.5,30.36,NE,55,2.2,2.2,67,0.00,,---,0.00,VWS V14.01,2013-01-25 13:46:00,
2013-01-25 08:48:00,62.7,51.8,30.36,NW,325,3.1,3.5,68,0.00,,---,0.00,VWS V14.01,2013-01-25 13:48:00,
2013-01-25 08:51:00,62.8,51.2,30.36,North,359,3.9,4.9,66,0.00,,---,0.00,VWS V14.01,2013-01-25 13:51:00,
2013-01-25 08:53:00,62.9,51.4,30.36,WNW,284,1.7,3.6,66,0.00,,---,0.00,VWS V14.01,2013-01-25 13:53:00,
2013-01-25 08:56:00,63.4,52.1,30.36,NW,309,3.7,3.7,67,0.00,,---,0.00,VWS V14.01,2013-01-25 13:56:00,
2013-01-25 08:57:00,63.4,51.7,30.36,NE,51,1.5,6.6,66,0.00,,---,0.00,VWS V14.01,2013-01-25 13:57:00,
2013-01-25 08:58:00,63.5,52.1,30.36,North,4,0.0,0.0,66,0.00,,---,0.00,VWS V14.01,2013-01-25 13:58:00,
2013-01-25 09:01:00,63.7,52.0,30.36,NW,311,0.0,1.2,66,0.00,,---,0.00,VWS V14.01,2013-01-25 14:01:00,
2013-01-25 09:02:00,63.9,52.2,30.37,NW,318,1.1,2.1,66,0.00,,---,0.00,VWS V14.01,2013-01-25 14:02:00,
2013-01-25 09:03:00,64.1,52.4,30.37,NW,319,3.2,3.2,66,0.00,,---,0.00,VWS V14.01,2013-01-25 14:03:00,
2013-01-25 09:06:00,64.2,52.3,30.37,North,357,4.7,5.3,65,0.00,,---,0.00,VWS V14.01,2013-01-25 14:06:00,
2013-01-25 09:07:00,64.3,52.3,30.37,North,3,1.6,1.7,65,0.00,,---,0.00,VWS V14.01,2013-01-25 14:07:00,
2013-01-25 09:08:00,64.3,51.6,30.37,North,353,3.2,6.9,63,0.00,,---,0.00,VWS V14.01,2013-01-25 14:08:00,
2013-01-25 09:11:00,64.6,51.9,30.37,NNW,333,5.5,7.0,63,0.00,,---,0.00,VWS V14.01,2013-01-25 14:11:00,
2013-01-25 09:12:00,64.6,51.8,30.37,NNE,13,2.9,4.7,63,0.00,,---,0.00,VWS V14.01,2013-01-25 14:12:00,
2013-01-25 09:13:00,64.7,51.6,30.37,North,4,4.4,5.0,62,0.00,,---,0.00,VWS V14.01,2013-01-25 14:13:00,
2013-01-25 09:16:00,64.9,52.1,30.37,North,359,3.0,5.1,63,0.00,,---,0.00,VWS V14.01,2013-01-25 14:16:00,
2013-01-25 09:17:00,64.9,51.9,30.37,North,352,4.1,5.2,63,0.00,,---,0.00,VWS V14.01,2013-01-25 14:17:00,
2013-01-25 09:18:00,65.3,52.4,30.37,NNE,27,2.0,3.5,63,0.00,,---,0.00,VWS V14.01,2013-01-25 14:18:00,
2013-01-25 09:19:00,65.3,52.5,30.37,WNW,297,1.1,3.5,63,0.00,,---,0.00,VWS V14.01,2013-01-25 14:19:00,
2013-01-25 09:21:00,65.4,51.6,30.37,NW,314,2.9,6.6,61,0.00,,---,0.00,VWS V14.01,2013-01-25 14:21:00,
2013-01-25 09:22:00,65.6,52.2,30.37,North,357,0.0,1.6,62,0.00,,---,0.00,VWS V14.01,2013-01-25 14:22:00,
2013-01-25 09:23:00,65.8,52.3,30.37,NNE,14,0.0,2.7,62,0.00,,---,0.00,VWS V14.01,2013-01-25 14:23:00,
2013-01-25 09:24:00,65.6,52.2,30.37,NNE,14,0.0,2.7,62,0.00,,---,0.00,VWS V14.01,2013-01-25 14:24:00,
2013-01-25 09:26:00,66.0,52.5,30.37,NNW,330,1.0,4.6,62,0.00,,---,0.00,VWS V14.01,2013-01-25 14:26:00,
2013-01-25 09:27:00,65.9,52.1,30.37,NNW,330,0.0,0.0,61,0.00,,---,0.00,VWS V14.01,2013-01-25 14:27:00,
2013-01-25 09:29:00,66.3,52.5,30.37,North,10,0.0,1.2,61,0.00,,---,0.00,VWS V14.01,2013-01-25 14:29:00,
2013-01-25 09:31:00,66.5,51.9,30.37,NNW,340,8.8,8.8,59,0.00,,---,0.00,VWS V14.01,2013-01-25 14:31:00,
2013-01-25 09:32:00,66.6,51.5,30.37,WNW,285,3.9,5.6,58,0.00,,---,0.00,VWS V14.01,2013-01-25 14:32:00,
2013-01-25 09:34:00,66.9,51.6,30.37,NNE,14,0.9,1.5,58,0.00,,---,0.00,VWS V14.01,2013-01-25 14:34:00,
2013-01-25 09:36:00,67.0,51.8,30.37,North,10,1.4,4.3,58,0.00,,---,0.00,VWS V14.01,2013-01-25 14:36:00,
2013-01-25 09:37:00,67.0,51.6,30.37,NW,321,2.9,4.2,58,0.00,,---,0.00,VWS V14.01,2013-01-25 14:37:00,
2013-01-25 09:39:00,67.3,52.3,30.37,North,3,0.0,0.0,59,0.00,,---,0.00,VWS V14.01,2013-01-25 14:39:00,
2013-01-25 09:41:00,67.3,51.7,30.37,East,79,4.3,4.7,57,0.00,,---,0.00,VWS V14.01,2013-01-25 14:41:00,
2013-01-25 09:42:00,67.4,51.8,30.38,ENE,63,1.6,5.7,57,0.00,,---,0.00,VWS V14.01,2013-01-25 14:42:00,
2013-01-25 09:44:00,67.6,52.0,30.38,NNW,342,3.0,3.6,57,0.00,,---,0.00,VWS V14.01,2013-01-25 14:44:00,
2013-01-25 09:46:00,67.7,51.7,30.38,ENE,62,3.4,4.5,56,0.00,,---,0.00,VWS V14.01,2013-01-25 14:46:00,
2013-01-25 09:48:00,67.7,52.0,30.38,NW,312,2.2,2.5,57,0.00,,---,0.00,VWS V14.01,2013-01-25 14:48:00,
2013-01-25 09:49:00,67.5,51.4,30.38,NNW,345,0.0,6.6,56,0.00,,---,0.00,VWS V14.01,2013-01-25 14:49:00,
2013-01-25 09:51:00,67.8,51.9,30.38,NW,312,0.7,1.9,57,0.00,,---,0.00,VWS V14.01,2013-01-25 14:51:00,
2013-01-25 09:53:00,68.0,52.2,30.38,NW,312,0.0,0.0,57,0.00,,---,0.00,VWS V14.01,2013-01-25 14:53:00,
2013-01-25 09:54:00,68.0,52.4,30.38,NNE,17,3.4,4.6,57,0.00,,---,0.00,VWS V14.01,2013-01-25 14:54:00,
2013-01-25 09:57:00,68.2,51.6,30.38,NNW,338,1.3,1.7,55,0.00,,---,0.00,VWS V14.01,2013-01-25 14:57:00,
2013-01-25 09:58:00,68.4,52.0,30.38,WNW,302,0.0,3.4,56,0.00,,---,0.00,VWS V14.01,2013-01-25 14:58:00,
2013-01-25 09:59:00,68.3,51.7,30.38,North,8,3.1,4.4,55,0.00,,---,0.00,VWS V14.01,2013-01-25 14:59:00,
2013-01-25 10:02:00,68.5,51.9,30.38,North,0,1.7,1.7,55,0.00,,---,0.00,VWS V14.01,2013-01-25 15:02:00,
2013-01-25 10:03:00,68.5,51.6,30.38,NW,307,6.0,6.6,55,0.00,,---,0.00,VWS V14.01,2013-01-25 15:03:00,
2013-01-25 10:04:00,68.4,50.7,30.38,North,8,3.2,7.6,53,0.00,,---,0.00,VWS V14.01,2013-01-25 15:04:00,
2013-01-25 10:07:00,68.4,51.3,30.38,NNW,343,2.9,3.6,54,0.00,,---,0.00,VWS V14.01,2013-01-25 15:07:00,
2013-01-25 10:08:00,68.4,51.4,30.38,ENE,77,0.0,3.2,55,0.00,,---,0.00,VWS V14.01,2013-01-25 15:08:00,
2013-01-25 10:09:00,68.3,51.5,30.38,NNE,20,0.0,2.6,55,0.00,,---,0.00,VWS V14.01,2013-01-25 15:09:00,
2013-01-25 10:12:00,68.1,51.1,30.38,North,349,1.5,3.4,55,0.00,,---,0.00,VWS V14.01,2013-01-25 15:12:00,
2013-01-25 10:13:00,68.0,51.2,30.38,NNW,330,0.0,4.9,55,0.00,,---,0.00,VWS V14.01,2013-01-25 15:13:00,
2013-01-25 10:14:00,67.9,51.2,30.38,North,10,3.9,6.1,55,0.00,,---,0.00,VWS V14.01,2013-01-25 15:14:00,
2013-01-25 10:15:00,67.8,51.1,30.38,WNW,294,2.0,2.7,55,0.00,,---,0.00,VWS V14.01,2013-01-25 15:15:00,
2013-01-25 10:17:00,67.8,51.6,30.38,North,6,0.0,0.0,56,0.00,,---,0.00,VWS V14.01,2013-01-25 15:17:00,
2013-01-25 10:19:00,67.9,51.8,30.38,North,6,0.0,0.0,56,0.00,,---,0.00,VWS V14.01,2013-01-25 15:19:00,
2013-01-25 10:20:00,67.9,51.6,30.38,North,4,1.4,2.0,56,0.00,,---,0.00,VWS V14.01,2013-01-25 15:20:00,
2013-01-25 10:22:00,68.1,51.5,30.38,NW,305,4.5,7.1,55,0.00,,---,0.00,VWS V14.01,2013-01-25 15:22:00,
2013-01-25 10:24:00,68.1,51.5,30.38,NW,325,0.0,0.0,55,0.00,,---,0.00,VWS V14.01,2013-01-25 15:24:00,
2013-01-25 10:25:00,68.3,51.8,30.37,NW,314,5.5,5.8,56,0.00,,---,0.00,VWS V14.01,2013-01-25 15:25:00,
2013-01-25 10:27:00,68.4,51.8,30.38,ENE,63,0.0,2.8,55,0.00,,---,0.00,VWS V14.01,2013-01-25 15:27:00,
2013-01-25 10:29:00,68.7,52.2,30.38,North,8,0.6,0.6,56,0.00,,---,0.00,VWS V14.01,2013-01-25 15:29:00,
2013-01-25 10:30:00,69.0,52.4,30.38,WNW,285,0.2,0.2,55,0.00,,---,0.00,VWS V14.01,2013-01-25 15:30:00,
2013-01-25 10:32:00,69.0,52.0,30.38,NW,312,3.5,5.2,55,0.00,,---,0.00,VWS V14.01,2013-01-25 15:32:00,
2013-01-25 10:34:00,69.2,51.9,30.37,NNW,328,1.4,3.6,54,0.00,,---,0.00,VWS V14.01,2013-01-25 15:34:00,
2013-01-25 10:35:00,69.4,52.2,30.38,NW,315,2.0,4.2,54,0.00,,---,0.00,VWS V14.01,2013-01-25 15:35:00,
2013-01-25 10:37:00,69.4,52.0,30.37,WNW,300,4.0,4.2,54,0.00,,---,0.00,VWS V14.01,2013-01-25 15:37:00,
2013-01-25 10:39:00,69.4,51.8,30.37,North,359,3.0,5.7,54,0.00,,---,0.00,VWS V14.01,2013-01-25 15:39:00,
2013-01-25 10:40:00,69.4,51.8,30.37,North,359,0.0,0.0,54,0.00,,---,0.00,VWS V14.01,2013-01-25 15:40:00,
2013-01-25 10:42:00,69.5,52.2,30.37,North,359,0.0,0.0,54,0.00,,---,0.00,VWS V14.01,2013-01-25 15:42:00,
2013-01-25 10:44:00,69.7,52.3,30.37,NNW,347,5.2,6.4,54,0.00,,---,0.00,VWS V14.01,2013-01-25 15:44:00,
2013-01-25 10:45:00,69.7,52.2,30.37,NW,318,0.0,2.2,54,0.00,,---,0.00,VWS V14.01,2013-01-25 15:45:00,
2013-01-25 10:47:00,69.9,52.5,30.37,NNW,342,4.1,4.1,54,0.00,,---,0.00,VWS V14.01,2013-01-25 15:47:00,
2013-01-25 10:49:00,70.1,52.0,30.37,NNE,17,2.0,5.3,53,0.00,,---,0.00,VWS V14.01,2013-01-25 15:49:00,
2013-01-25 10:50:00,70.2,52.2,30.37,NW,314,1.4,2.7,53,0.00,,---,0.00,VWS V14.01,2013-01-25 15:50:00,
2013-01-25 10:51:00,70.3,52.3,30.37,NW,308,2.8,2.9,53,0.00,,---,0.00,VWS V14.01,2013-01-25 15:51:00,
2013-01-25 10:52:00,70.1,52.1,30.37,NW,326,1.6,4.4,53,0.00,,---,0.00,VWS V14.01,2013-01-25 15:52:00,
2013-01-25 10:54:00,70.2,52.4,30.37,NNW,345,4.2,5.0,53,0.00,,---,0.00,VWS V14.01,2013-01-25 15:54:00,
2013-01-25 10:55:00,70.3,52.4,30.37,NW,304,0.6,4.6,53,0.00,,---,0.00,VWS V14.01,2013-01-25 15:55:00,
2013-01-25 10:56:00,70.5,52.5,30.37,NW,304,0.0,0.0,53,0.00,,---,0.00,VWS V14.01,2013-01-25 15:56:00,
2013-01-25 10:57:00,70.5,52.8,30.37,NW,316,2.3,2.3,54,0.00,,---,0.00,VWS V14.01,2013-01-25 15:57:00,
2013-01-25 10:59:00,70.7,52.8,30.37,NE,45,0.0,0.0,53,0.00,,---,0.00,VWS V14.01,2013-01-25 15:59:00,
2013-01-25 11:00:00,70.7,52.5,30.37,NE,45,0.0,0.0,52,0.00,,---,0.00,VWS V14.01,2013-01-25 16:00:00,
2013-01-25 11:01:00,71.0,52.8,30.37,NE,45,0.0,0.0,52,0.00,,---,0.00,VWS V14.01,2013-01-25 16:01:00,
2013-01-25 11:02:00,71.0,52.8,30.37,East,97,3.8,3.8,52,0.00,,---,0.00,VWS V14.01,2013-01-25 16:02:00,
2013-01-25 11:05:00,71.0,53.0,30.37,NNE,22,2.5,3.2,53,0.00,,---,0.00,VWS V14.01,2013-01-25 16:05:00,
2013-01-25 11:06:00,71.3,53.2,30.37,NW,325,0.0,2.3,53,0.00,,---,0.00,VWS V14.01,2013-01-25 16:06:00,
2013-01-25 11:08:00,71.5,52.8,30.37,NNW,338,0.7,1.6,52,0.00,,---,0.00,VWS V14.01,2013-01-25 16:08:00,
2013-01-25 11:10:00,71.7,53.0,30.37,North,359,2.7,2.7,52,0.00,,---,0.00,VWS V14.01,2013-01-25 16:10:00,
2013-01-25 11:11:00,71.5,53.1,30.37,NNE,17,1.7,1.7,52,0.00,,---,0.00,VWS V14.01,2013-01-25 16:11:00,
2013-01-25 11:13:00,71.7,53.3,30.37,NW,311,2.7,2.7,52,0.00,,---,0.00,VWS V14.01,2013-01-25 16:13:00,
2013-01-25 11:15:00,71.7,53.6,30.37,SE,134,0.0,3.3,53,0.00,,---,0.00,VWS V14.01,2013-01-25 16:15:00,
2013-01-25 11:16:00,71.7,53.6,30.36,North,359,0.0,0.0,53,0.00,,---,0.00,VWS V14.01,2013-01-25 16:16:00,
2013-01-25 11:18:00,71.9,54.3,30.36,North,6,0.0,1.1,54,0.00,,---,0.00,VWS V14.01,2013-01-25 16:18:00,
2013-01-25 11:20:00,72.2,54.5,30.36,NE,53,0.0,0.0,54,0.00,,---,0.00,VWS V14.01,2013-01-25 16:20:00,
2013-01-25 11:21:00,72.3,54.6,30.36,NE,53,0.0,0.0,54,0.00,,---,0.00,VWS V14.01,2013-01-25 16:21:00,
2013-01-25 11:23:00,72.6,54.8,30.36,NE,38,5.4,5.4,54,0.00,,---,0.00,VWS V14.01,2013-01-25 16:23:00,
2013-01-25 11:25:00,72.7,54.5,30.36,NNE,20,1.5,3.3,53,0.00,,---,0.00,VWS V14.01,2013-01-25 16:25:00,
2013-01-25 11:26:00,72.6,54.5,30.36,NE,42,4.2,4.2,53,0.00,,---,0.00,VWS V14.01,2013-01-25 16:26:00,
2013-01-25 11:28:00,72.8,54.3,30.36,NNW,336,1.7,4.1,52,0.00,,---,0.00,VWS V14.01,2013-01-25 16:28:00,
2013-01-25 11:30:00,73.0,54.7,30.36,East,93,3.2,4.7,53,0.00,,---,0.00,VWS V14.01,2013-01-25 16:30:00,
2013-01-25 11:31:00,73.0,54.8,30.36,NNW,338,1.9,1.9,53,0.00,,---,0.00,VWS V14.01,2013-01-25 16:31:00,
2013-01-25 11:33:00,72.8,54.8,30.36,NW,307,0.0,1.0,53,0.00,,---,0.00,VWS V14.01,2013-01-25 16:33:00,
2013-01-25 11:36:00,73.0,54.8,30.36,NE,39,0.0,2.9,53,0.00,,---,0.00,VWS V14.01,2013-01-25 16:36:00,
2013-01-25 11:38:00,73.1,55.2,30.36,North,357,0.0,0.0,54,0.00,,---,0.00,VWS V14.01,2013-01-25 16:38:00,
2013-01-25 11:41:00,73.1,54.9,30.35,East,94,0.8,0.8,53,0.00,,---,0.00,VWS V14.01,2013-01-25 16:41:00,
2013-01-25 11:43:00,73.1,54.9,30.35,SE,135,0.0,3.5,53,0.00,,---,0.00,VWS V14.01,2013-01-25 16:43:00,
2013-01-25 11:46:00,73.0,54.6,30.35,East,101,2.9,2.9,52,0.00,,---,0.00,VWS V14.01,2013-01-25 16:46:00,
2013-01-25 11:48:00,73.1,54.8,30.35,NE,48,0.0,0.0,53,0.00,,---,0.00,VWS V14.01,2013-01-25 16:48:00,
2013-01-25 11:51:00,73.1,55.1,30.35,East,96,3.2,3.2,53,0.00,,---,0.00,VWS V14.01,2013-01-25 16:51:00,
2013-01-25 11:52:00,73.2,55.3,30.35,NNW,328,0.9,8.1,53,0.00,,---,0.00,VWS V14.01,2013-01-25 16:52:00,
2013-01-25 11:53:00,73.5,55.3,30.35,East,94,1.2,3.9,53,0.00,,---,0.00,VWS V14.01,2013-01-25 16:53:00,
2013-01-25 11:56:00,73.8,55.8,30.35,ESE,114,0.0,1.7,53,0.00,,---,0.00,VWS V14.01,2013-01-25 16:56:00,
2013-01-25 11:57:00,73.6,55.4,30.35,ESE,104,0.0,4.9,53,0.00,,---,0.00,VWS V14.01,2013-01-25 16:57:00,
2013-01-25 11:58:00,73.8,56.4,30.35,ENE,70,1.6,6.0,54,0.00,,---,0.00,VWS V14.01,2013-01-25 16:58:00,
2013-01-25 12:01:00,74.3,57.0,30.35,NE,56,0.0,1.1,55,0.00,,---,0.00,VWS V14.01,2013-01-25 17:01:00,
2013-01-25 12:02:00,74.2,56.8,30.35,ENE,63,4.0,5.1,54,0.00,,---,0.00,VWS V14.01,2013-01-25 17:02:00,
2013-01-25 12:03:00,74.5,56.7,30.35,North,0,0.0,3.4,54,0.00,,---,0.00,VWS V14.01,2013-01-25 17:03:00,
2013-01-25 12:06:00,74.3,57.0,30.34,NNW,340,2.2,2.2,55,0.00,,---,0.00,VWS V14.01,2013-01-25 17:06:00,
2013-01-25 12:07:00,74.3,57.0,30.34,ESE,112,7.1,11.2,55,0.00,,---,0.00,VWS V14.01,2013-01-25 17:07:00,
2013-01-25 12:08:00,74.2,56.8,30.34,NNE,18,1.6,3.5,54,0.00,,---,0.00,VWS V14.01,2013-01-25 17:08:00,
2013-01-25 12:11:00,74.4,56.8,30.34,ENE,65,1.9,4.3,54,0.00,,---,0.00,VWS V14.01,2013-01-25 17:11:00,
2013-01-25 12:12:00,74.4,57.0,30.34,North,356,2.2,4.3,55,0.00,,---,0.00,VWS V14.01,2013-01-25 17:12:00,
2013-01-25 12:14:00,74.2,57.0,30.34,NNE,15,0.0,4.0,55,0.00,,---,0.00,VWS V14.01,2013-01-25 17:14:00,
2013-01-25 12:16:00,74.1,56.7,30.34,North,7,3.1,3.1,54,0.00,,---,0.00,VWS V14.01,2013-01-25 17:16:00,
2013-01-25 12:17:00,74.2,57.0,30.34,ENE,66,2.0,3.8,55,0.00,,---,0.00,VWS V14.01,2013-01-25 17:17:00,
2013-01-25 12:19:00,74.4,57.2,30.34,ESE,117,0.0,5.3,55,0.00,,---,0.00,VWS V14.01,2013-01-25 17:19:00,
2013-01-25 12:21:00,74.4,56.9,30.34,ENE,59,7.1,8.4,54,0.00,,---,0.00,VWS V14.01,2013-01-25 17:21:00,
2013-01-25 12:22:00,74.4,57.1,30.34,East,94,9.8,9.8,55,0.00,,---,0.00,VWS V14.01,2013-01-25 17:22:00,
2013-01-25 12:24:00,74.1,57.1,30.33,NE,45,5.1,6.3,55,0.00,,---,0.00,VWS V14.01,2013-01-25 17:24:00,
2013-01-25 12:27:00,73.9,57.3,30.33,East,97,3.4,6.0,56,0.00,,---,0.00,VWS V14.01,2013-01-25 17:27:00,
2013-01-25 12:29:00,73.8,57.2,30.33,SE,139,4.0,4.2,56,0.00,,---,0.00,VWS V14.01,2013-01-25 17:29:00,
2013-01-25 12:32:00,73.8,57.4,30.33,North,359,3.2,7.0,57,0.00,,---,0.00,VWS V14.01,2013-01-25 17:32:00,
2013-01-25 12:34:00,73.9,57.0,30.33,ENE,59,6.0,6.0,56,0.00,,---,0.00,VWS V14.01,2013-01-25 17:34:00,
2013-01-25 12:37:00,73.9,57.0,30.33,East,93,5.7,5.8,56,0.00,,---,0.00,VWS V14.01,2013-01-25 17:37:00,
2013-01-25 12:39:00,73.6,57.4,30.33,East,91,4.3,6.7,57,0.00,,---,0.00,VWS V14.01,2013-01-25 17:39:00,
2013-01-25 12:42:00,73.9,57.8,30.32,ENE,68,0.9,0.9,57,0.00,,---,0.00,VWS V14.01,2013-01-25 17:42:00,
2013-01-25 12:44:00,74.0,57.4,30.32,NNE,28,0.0,0.0,56,0.00,,---,0.00,VWS V14.01,2013-01-25 17:44:00,
2013-01-25 12:47:00,73.9,57.5,30.32,North,1,0.9,7.4,56,0.00,,---,0.00,VWS V14.01,2013-01-25 17:47:00,
2013-01-25 12:49:00,74.1,57.9,30.32,SE,138,3.5,8.1,57,0.00,,---,0.00,VWS V14.01,2013-01-25 17:49:00,
2013-01-25 12:52:00,74.1,57.6,30.32,NE,35,1.1,5.2,56,0.00,,---,0.00,VWS V14.01,2013-01-25 17:52:00,
2013-01-25 12:54:00,74.0,57.4,30.31,North,4,3.4,7.1,56,0.00,,---,0.00,VWS V14.01,2013-01-25 17:54:00,
2013-01-25 12:57:00,73.9,57.7,30.31,East,98,5.6,9.3,57,0.00,,---,0.00,VWS V14.01,2013-01-25 17:57:00,
2013-01-25 13:00:00,73.5,57.4,30.31,SE,128,4.4,5.2,57,0.00,,---,0.00,VWS V14.01,2013-01-25 18:00:00,
2013-01-25 13:02:00,73.9,58.2,30.31,NNW,336,0.0,2.2,58,0.00,,---,0.00,VWS V14.01,2013-01-25 18:02:00,
2013-01-25 13:03:00,73.7,57.9,30.31,NNW,336,0.0,2.2,58,0.00,,---,0.00,VWS V14.01,2013-01-25 18:03:00,
2013-01-25 13:05:00,74.1,57.9,30.31,SE,131,5.5,5.8,57,0.00,,---,0.00,VWS V14.01,2013-01-25 18:05:00,
2013-01-25 13:07:00,74.2,57.2,30.31,SE,141,6.9,6.9,55,0.00,,---,0.00,VWS V14.01,2013-01-25 18:07:00,
2013-01-25 13:08:00,74.2,57.4,30.31,ENE,69,4.0,6.9,56,0.00,,---,0.00,VWS V14.01,2013-01-25 18:08:00,
2013-01-25 13:10:00,74.4,57.5,30.31,SE,138,4.5,6.4,56,0.00,,---,0.00,VWS V14.01,2013-01-25 18:10:00,
2013-01-25 13:13:00,74.2,57.9,30.31,ESE,115,3.3,5.8,57,0.00,,---,0.00,VWS V14.01,2013-01-25 18:13:00,
2013-01-25 13:15:00,74.4,57.2,30.31,SSE,160,3.4,4.7,55,0.00,,---,0.00,VWS V14.01,2013-01-25 18:15:00,
2013-01-25 13:18:00,74.7,57.5,30.30,SE,142,2.8,7.9,55,0.00,,---,0.00,VWS V14.01,2013-01-25 18:18:00,
2013-01-25 13:20:00,75.0,57.6,30.30,SSE,152,6.0,7.0,55,0.00,,---,0.00,VWS V14.01,2013-01-25 18:20:00,
2013-01-25 13:23:00,74.9,57.6,30.30,East,79,6.2,6.9,55,0.00,,---,0.00,VWS V14.01,2013-01-25 18:23:00,
2013-01-25 13:25:00,75.0,58.0,30.30,NE,39,4.5,5.5,55,0.00,,---,0.00,VWS V14.01,2013-01-25 18:25:00,
2013-01-25 13:28:00,74.7,57.2,30.30,South,169,1.4,7.7,54,0.00,,---,0.00,VWS V14.01,2013-01-25 18:28:00,
2013-01-25 13:30:00,74.4,57.3,30.30,SE,124,4.6,5.2,55,0.00,,---,0.00,VWS V14.01,2013-01-25 18:30:00,
2013-01-25 13:33:00,73.8,57.6,30.30,NE,42,0.8,1.3,57,0.00,,---,0.00,VWS V14.01,2013-01-25 18:33:00,
2013-01-25 13:35:00,73.7,57.6,30.30,SE,125,3.1,3.1,57,0.00,,---,0.00,VWS V14.01,2013-01-25 18:35:00,
2013-01-25 13:38:00,73.9,57.6,30.29,ESE,107,5.7,6.0,57,0.00,,---,0.00,VWS V14.01,2013-01-25 18:38:00,
2013-01-25 13:39:00,74.0,57.9,30.30,ENE,58,5.0,6.0,57,0.00,,---,0.00,VWS V14.01,2013-01-25 18:39:00,
2013-01-25 13:40:00,73.9,57.5,30.29,SE,125,6.4,7.6,56,0.00,,---,0.00,VWS V14.01,2013-01-25 18:40:00,
2013-01-25 13:43:00,74.3,57.5,30.30,SSW,201,2.6,4.7,56,0.00,,---,0.00,VWS V14.01,2013-01-25 18:43:00,
2013-01-25 13:44:00,74.4,57.9,30.30,SSE,149,2.9,4.8,56,0.00,,---,0.00,VWS V14.01,2013-01-25 18:44:00,
2013-01-25 13:45:00,74.3,57.7,30.30,NE,38,0.0,1.3,56,0.00,,---,0.00,VWS V14.01,2013-01-25 18:45:00,
2013-01-25 13:48:00,74.3,57.7,30.29,SE,139,1.9,5.1,56,0.00,,---,0.00,VWS V14.01,2013-01-25 18:48:00,
2013-01-25 13:49:00,74.6,58.2,30.29,SSE,149,7.2,7.6,57,0.00,,---,0.00,VWS V14.01,2013-01-25 18:49:00,
2013-01-25 13:50:00,74.5,57.6,30.29,East,80,2.6,4.2,56,0.00,,---,0.00,VWS V14.01,2013-01-25 18:50:00,
2013-01-25 13:53:00,74.4,57.6,30.29,ESE,121,1.2,1.3,56,0.00,,---,0.00,VWS V14.01,2013-01-25 18:53:00,
2013-01-25 13:54:00,74.4,57.6,30.29,SE,139,5.7,7.2,56,0.00,,---,0.00,VWS V14.01,2013-01-25 18:54:00,
2013-01-25 13:55:00,74.3,57.8,30.29,South,170,4.5,6.2,56,0.00,,---,0.00,VWS V14.01,2013-01-25 18:55:00,
2013-01-25 13:58:00,74.5,57.7,30.29,NE,45,0.3,5.0,56,0.00,,---,0.00,VWS V14.01,2013-01-25 18:58:00,
2013-01-25 13:59:00,74.5,57.5,30.29,ESE,114,2.1,3.3,56,0.00,,---,0.00,VWS V14.01,2013-01-25 18:59:00,
2013-01-25 14:00:00,74.6,57.3,30.29,SE,124,0.0,0.0,55,0.00,,---,0.00,VWS V14.01,2013-01-25 19:00:00,
2013-01-25 14:01:00,74.7,57.7,30.29,SE,124,0.0,0.0,55,0.00,,---,0.00,VWS V14.01,2013-01-25 19:01:00,
2013-01-25 14:03:00,74.7,57.7,30.29,WNW,292,0.0,2.8,56,0.00,,---,0.00,VWS V14.01,2013-01-25 19:03:00,
2013-01-25 14:04:00,74.6,57.8,30.29,NNW,333,3.8,4.3,56,0.00,,---,0.00,VWS V14.01,2013-01-25 19:04:00,
2013-01-25 14:05:00,74.7,57.6,30.29,SE,135,5.5,10.1,55,0.00,,---,0.00,VWS V14.01,2013-01-25 19:05:00,
2013-01-25 14:06:00,74.5,57.2,30.29,East,91,7.6,9.5,55,0.00,,---,0.00,VWS V14.01,2013-01-25 19:06:00,
2013-01-25 14:08:00,74.2,57.7,30.29,East,97,7.8,9.3,56,0.00,,---,0.00,VWS V14.01,2013-01-25 19:08:00,
2013-01-25 14:09:00,73.9,57.6,30.29,ENE,66,6.0,6.6,57,0.00,,---,0.00,VWS V14.01,2013-01-25 19:09:00,
2013-01-25 14:10:00,74.0,57.9,30.29,ENE,72,1.2,2.7,57,0.00,,---,0.00,VWS V14.01,2013-01-25 19:10:00,
2013-01-25 14:11:00,74.0,57.9,30.29,East,97,2.4,2.4,57,0.00,,---,0.00,VWS V14.01,2013-01-25 19:11:00,
2013-01-25 14:13:00,74.0,57.7,30.29,East,90,0.0,0.0,57,0.00,,---,0.00,VWS V14.01,2013-01-25 19:13:00,
2013-01-25 14:14:00,74.2,57.8,30.29,East,90,0.0,0.0,56,0.00,,---,0.00,VWS V14.01,2013-01-25 19:14:00,
2013-01-25 14:15:00,74.0,57.8,30.29,ENE,76,2.3,6.5,57,0.00,,---,0.00,VWS V14.01,2013-01-25 19:15:00,
2013-01-25 14:16:00,74.0,57.6,30.29,East,79,2.2,2.2,56,0.00,,---,0.00,VWS V14.01,2013-01-25 19:16:00,
2013-01-25 14:18:00,73.8,57.1,30.29,East,89,0.0,5.6,56,0.00,,---,0.00,VWS V14.01,2013-01-25 19:18:00,
2013-01-25 14:19:00,73.9,57.3,30.29,ENE,60,2.7,5.2,56,0.00,,---,0.00,VWS V14.01,2013-01-25 19:19:00,
2013-01-25 14:21:00,73.9,57.8,30.29,East,82,4.3,5.5,57,0.00,,---,0.00,VWS V14.01,2013-01-25 19:21:00,
2013-01-25 14:23:00,73.8,57.4,30.28,ENE,66,0.0,0.0,57,0.00,,---,0.00,VWS V14.01,2013-01-25 19:23:00,
2013-01-25 14:25:00,73.8,57.4,30.28,East,91,3.0,3.0,56,0.00,,---,0.00,VWS V14.01,2013-01-25 19:25:00,
2013-01-25 14:26:00,73.9,57.5,30.28,ESE,107,4.0,4.3,57,0.00,,---,0.00,VWS V14.01,2013-01-25 19:26:00,
2013-01-25 14:28:00,73.8,57.6,30.28,ESE,114,3.2,8.3,57,0.00,,---,0.00,VWS V14.01,2013-01-25 19:28:00,
2013-01-25 14:30:00,73.9,57.8,30.28,ENE,73,2.2,4.5,57,0.00,,---,0.00,VWS V14.01,2013-01-25 19:30:00,
2013-01-25 14:31:00,74.1,57.6,30.28,East,91,4.4,4.6,56,0.00,,---,0.00,VWS V14.01,2013-01-25 19:31:00,
2013-01-25 14:32:00,74.1,57.5,30.28,North,6,1.1,4.9,56,0.00,,---,0.00,VWS V14.01,2013-01-25 19:32:00,
2013-01-25 14:33:00,74.0,58.0,30.28,North,349,0.0,0.0,57,0.00,,---,0.00,VWS V14.01,2013-01-25 19:33:00,
2013-01-25 14:35:00,74.2,58.0,30.28,ESE,108,4.5,5.6,57,0.00,,---,0.00,VWS V14.01,2013-01-25 19:35:00,
2013-01-25 14:36:00,74.1,57.6,30.28,SE,142,6.8,7.0,56,0.00,,---,0.00,VWS V14.01,2013-01-25 19:36:00,
2013-01-25 14:37:00,74.4,58.3,30.28,East,80,5.7,5.7,57,0.00,,---,0.00,VWS V14.01,2013-01-25 19:37:00,
2013-01-25 14:39:00,74.3,57.9,30.28,East,87,5.2,7.6,57,0.00,,---,0.00,VWS V14.01,2013-01-25 19:39:00,
2013-01-25 14:40:00,74.4,57.8,30.28,East,97,1.1,2.2,56,0.00,,---,0.00,VWS V14.01,2013-01-25 19:40:00,
2013-01-25 14:41:00,74.4,57.8,30.28,East,97,0.0,0.0,56,0.00,,---,0.00,VWS V14.01,2013-01-25 19:41:00,
2013-01-25 14:42:00,74.6,58.0,30.28,NNW,330,0.9,0.9,56,0.00,,---,0.00,VWS V14.01,2013-01-25 19:42:00,
2013-01-25 14:44:00,74.5,57.5,30.28,SSE,153,5.4,8.1,56,0.00,,---,0.00,VWS V14.01,2013-01-25 19:44:00,
2013-01-25 14:45:00,74.4,57.7,30.28,East,86,7.4,7.4,56,0.00,,---,0.00,VWS V14.01,2013-01-25 19:45:00,
2013-01-25 14:46:00,74.3,57.5,30.28,East,82,7.2,7.7,56,0.00,,---,0.00,VWS V14.01,2013-01-25 19:46:00,
2013-01-25 14:47:00,74.1,57.9,30.28,SE,125,3.2,4.8,57,0.00,,---,0.00,VWS V14.01,2013-01-25 19:47:00,
2013-01-25 14:49:00,74.1,57.8,30.28,South,172,5.5,5.5,57,0.00,,---,0.00,VWS V14.01,2013-01-25 19:49:00,
2013-01-25 14:50:00,74.1,57.7,30.28,ENE,72,2.2,2.5,56,0.00,,---,0.00,VWS V14.01,2013-01-25 19:50:00,
2013-01-25 14:51:00,74.2,58.0,30.28,SE,141,0.5,5.4,57,0.00,,---,0.00,VWS V14.01,2013-01-25 19:51:00,
2013-01-25 14:52:00,74.3,58.2,30.28,East,79,1.9,2.9,57,0.00,,---,0.00,VWS V14.01,2013-01-25 19:52:00,
2013-01-25 14:54:00,74.6,58.2,30.28,SSE,163,7.3,7.8,57,0.00,,---,0.00,VWS V14.01,2013-01-25 19:54:00,
2013-01-25 14:55:00,74.6,57.6,30.28,ESE,111,5.6,6.0,55,0.00,,---,0.00,VWS V14.01,2013-01-25 19:55:00,
2013-01-25 14:56:00,74.4,57.0,30.28,SSE,167,4.4,7.7,55,0.00,,---,0.00,VWS V14.01,2013-01-25 19:56:00,
2013-01-25 14:57:00,74.5,57.1,30.28,SSW,197,0.6,1.3,55,0.00,,---,0.00,VWS V14.01,2013-01-25 19:57:00,
2013-01-25 14:59:00,74.5,57.7,30.27,SSE,162,8.6,10.5,56,0.00,,---,0.00,VWS V14.01,2013-01-25 19:59:00,
2013-01-25 15:01:00,74.4,57.8,30.27,South,191,2.5,6.8,56,0.00,,---,0.00,VWS V14.01,2013-01-25 20:01:00,
2013-01-25 15:02:00,74.4,57.7,30.28,East,101,0.0,0.0,56,0.00,,---,0.00,VWS V14.01,2013-01-25 20:02:00,
2013-01-25 15:04:00,74.4,57.3,30.27,SE,132,3.8,5.5,55,0.00,,---,0.00,VWS V14.01,2013-01-25 20:04:00,
2013-01-25 15:06:00,74.3,57.2,30.27,South,181,0.0,4.9,55,0.00,,---,0.00,VWS V14.01,2013-01-25 20:06:00,
2013-01-25 15:07:00,74.4,57.5,30.27,ENE,60,1.4,2.6,56,0.00,,---,0.00,VWS V14.01,2013-01-25 20:07:00,
2013-01-25 15:09:00,74.7,58.2,30.27,SSE,153,4.4,4.8,56,0.00,,---,0.00,VWS V14.01,2013-01-25 20:09:00,
2013-01-25 15:11:00,74.7,57.7,30.27,East,87,3.9,5.3,55,0.00,,---,0.00,VWS V14.01,2013-01-25 20:11:00,
2013-01-25 15:12:00,74.7,56.9,30.27,East,98,0.0,0.0,54,0.00,,---,0.00,VWS V14.01,2013-01-25 20:12:00,
2013-01-25 15:15:00,74.7,57.4,30.27,SSE,159,2.3,3.8,55,0.00,,---,0.00,VWS V14.01,2013-01-25 20:15:00,
2013-01-25 15:16:00,74.7,57.2,30.27,SSE,152,1.2,3.8,54,0.00,,---,0.00,VWS V14.01,2013-01-25 20:16:00,
2013-01-25 15:17:00,74.7,57.2,30.27,ENE,77,1.1,1.1,54,0.00,,---,0.00,VWS V14.01,2013-01-25 20:17:00,
2013-01-25 15:20:00,74.7,58.1,30.27,South,176,4.7,7.1,56,0.00,,---,0.00,VWS V14.01,2013-01-25 20:20:00,
2013-01-25 15:21:00,74.7,57.9,30.27,SSE,166,1.9,2.9,56,0.00,,---,0.00,VWS V14.01,2013-01-25 20:21:00,
2013-01-25 15:22:00,74.7,58.1,30.27,SE,141,6.6,8.6,56,0.00,,---,0.00,VWS V14.01,2013-01-25 20:22:00,
2013-01-25 15:25:00,74.6,57.5,30.27,SSW,200,1.6,2.4,55,0.00,,---,0.00,VWS V14.01,2013-01-25 20:25:00,
2013-01-25 15:26:00,74.5,57.5,30.27,South,184,5.7,5.7,56,0.00,,---,0.00,VWS V14.01,2013-01-25 20:26:00,
2013-01-25 15:27:00,74.4,57.7,30.27,South,188,4.3,4.4,56,0.00,,---,0.00,VWS V14.01,2013-01-25 20:27:00,
2013-01-25 15:30:00,74.5,58.0,30.27,NW,315,1.2,3.3,56,0.00,,---,0.00,VWS V14.01,2013-01-25 20:30:00,
2013-01-25 15:31:00,74.4,57.9,30.27,ESE,121,4.0,7.5,56,0.00,,---,0.00,VWS V14.01,2013-01-25 20:31:00,
2013-01-25 15:32:00,74.4,57.8,30.27,East,83,6.1,6.3,56,0.00,,---,0.00,VWS V14.01,2013-01-25 20:32:00,
2013-01-25 15:35:00,74.2,57.9,30.27,NE,51,0.0,0.0,57,0.00,,---,0.00,VWS V14.01,2013-01-25 20:35:00,
2013-01-25 15:36:00,74.2,58.0,30.27,NE,51,0.0,0.0,57,0.00,,---,0.00,VWS V14.01,2013-01-25 20:36:00,
2013-01-25 15:37:00,74.2,58.2,30.27,NE,51,0.0,0.0,57,0.00,,---,0.00,VWS V14.01,2013-01-25 20:37:00,
2013-01-25 15:38:00,74.2,58.1,30.27,NE,51,0.0,0.0,57,0.00,,---,0.00,VWS V14.01,2013-01-25 20:38:00,
2013-01-25 15:40:00,74.1,57.5,30.27,East,91,2.7,6.1,56,0.00,,---,0.00,VWS V14.01,2013-01-25 20:40:00,
2013-01-25 15:41:00,74.0,57.4,30.27,ENE,59,0.2,3.6,56,0.00,,---,0.00,VWS V14.01,2013-01-25 20:41:00,
2013-01-25 15:42:00,74.0,57.4,30.27,NE,45,2.1,2.9,56,0.00,,---,0.00,VWS V14.01,2013-01-25 20:42:00,
2013-01-25 15:43:00,74.1,57.6,30.27,East,90,0.0,0.0,56,0.00,,---,0.00,VWS V14.01,2013-01-25 20:43:00,
2013-01-25 15:45:00,74.2,57.8,30.27,East,90,0.0,0.0,56,0.00,,---,0.00,VWS V14.01,2013-01-25 20:45:00,
2013-01-25 15:46:00,74.1,57.8,30.27,East,86,3.7,6.6,57,0.00,,---,0.00,VWS V14.01,2013-01-25 20:46:00,
2013-01-25 15:47:00,74.0,57.6,30.27,NNE,13,1.2,6.1,57,0.00,,---,0.00,VWS V14.01,2013-01-25 20:47:00,
2013-01-25 15:48:00,73.9,57.8,30.27,East,94,6.2,6.2,57,0.00,,---,0.00,VWS V14.01,2013-01-25 20:48:00,
2013-01-25 15:50:00,74.0,57.9,30.27,ESE,107,3.1,3.6,57,0.00,,---,0.00,VWS V14.01,2013-01-25 20:50:00,
2013-01-25 15:51:00,73.9,58.1,30.27,ESE,118,2.9,3.0,58,0.00,,---,0.00,VWS V14.01,2013-01-25 20:51:00,
2013-01-25 15:52:00,73.9,58.2,30.27,East,87,1.5,3.5,58,0.00,,---,0.00,VWS V14.01,2013-01-25 20:52:00,
2013-01-25 15:53:00,73.9,57.8,30.27,East,79,4.0,6.0,57,0.00,,---,0.00,VWS V14.01,2013-01-25 20:53:00,
2013-01-25 15:55:00,73.9,57.5,30.27,East,80,0.0,2.2,57,0.00,,---,0.00,VWS V14.01,2013-01-25 20:55:00,
2013-01-25 15:56:00,74.1,57.9,30.27,ENE,72,0.0,2.4,57,0.00,,---,0.00,VWS V14.01,2013-01-25 20:56:00,
2013-01-25 15:57:00,73.9,57.8,30.27,SE,124,0.0,3.7,57,0.00,,---,0.00,VWS V14.01,2013-01-25 20:57:00,
2013-01-25 15:59:00,73.8,57.9,30.27,SE,125,1.7,2.4,58,0.00,,---,0.00,VWS V14.01,2013-01-25 20:59:00,
2013-01-25 16:00:00,73.9,58.0,30.27,SE,145,4.7,7.5,58,0.00,,---,0.00,VWS V14.01,2013-01-25 21:00:00,
2013-01-25 16:02:00,73.8,58.3,30.27,East,90,3.4,4.1,58,0.00,,---,0.00,VWS V14.01,2013-01-25 21:02:00,
2013-01-25 16:03:00,73.7,58.1,30.27,ESE,121,1.1,5.3,58,0.00,,---,0.00,VWS V14.01,2013-01-25 21:03:00,
2013-01-25 16:04:00,73.6,58.0,30.28,NE,35,0.9,1.0,58,0.00,,---,0.00,VWS V14.01,2013-01-25 21:04:00,
2013-01-25 16:06:00,73.7,57.4,30.27,East,89,3.8,4.1,57,0.00,,---,0.00,VWS V14.01,2013-01-25 21:06:00,
2013-01-25 16:07:00,73.8,57.8,30.27,East,93,2.8,3.5,57,0.00,,---,0.00,VWS V14.01,2013-01-25 21:07:00,
2013-01-25 16:08:00,73.6,57.9,30.27,East,94,0.9,4.0,58,0.00,,---,0.00,VWS V14.01,2013-01-25 21:08:00,
2013-01-25 16:09:00,73.6,58.0,30.27,East,86,4.2,4.2,58,0.00,,---,0.00,VWS V14.01,2013-01-25 21:09:00,
2013-01-25 16:11:00,73.7,58.3,30.27,ESE,103,1.7,2.2,58,0.00,,---,0.00,VWS V14.01,2013-01-25 21:11:00,
2013-01-25 16:12:00,73.7,58.3,30.27,ESE,105,3.7,7.0,59,0.00,,---,0.00,VWS V14.01,2013-01-25 21:12:00,
2013-01-25 16:13:00,73.7,57.9,30.27,ESE,118,5.3,7.0,58,0.00,,---,0.00,VWS V14.01,2013-01-25 21:13:00,
2013-01-25 16:14:00,73.8,58.2,30.27,SE,146,7.4,7.4,58,0.00,,---,0.00,VWS V14.01,2013-01-25 21:14:00,
2013-01-25 16:16:00,73.7,58.1,30.28,ENE,73,0.0,4.3,58,0.00,,---,0.00,VWS V14.01,2013-01-25 21:16:00,
2013-01-25 16:17:00,73.6,57.9,30.27,SSE,158,2.6,4.7,58,0.00,,---,0.00,VWS V14.01,2013-01-25 21:17:00,
2013-01-25 16:18:00,73.7,58.2,30.27,ESE,108,0.7,4.7,58,0.00,,---,0.00,VWS V14.01,2013-01-25 21:18:00,
2013-01-25 16:19:00,73.7,58.3,30.28,NNE,30,3.0,3.0,59,0.00,,---,0.00,VWS V14.01,2013-01-25 21:19:00,
2013-01-25 16:21:00,73.7,58.0,30.27,NE,56,1.8,1.8,58,0.00,,---,0.00,VWS V14.01,2013-01-25 21:21:00,
2013-01-25 16:22:00,73.7,57.8,30.27,NNE,14,1.1,6.1,58,0.00,,---,0.00,VWS V14.01,2013-01-25 21:22:00,
2013-01-25 16:23:00,73.5,57.7,30.27,East,80,4.3,6.5,58,0.00,,---,0.00,VWS V14.01,2013-01-25 21:23:00,
2013-01-25 16:24:00,73.5,57.8,30.27,East,91,1.7,3.6,58,0.00,,---,0.00,VWS V14.01,2013-01-25 21:24:00,
2013-01-25 16:26:00,73.6,58.3,30.27,ENE,60,0.0,0.0,59,0.00,,---,0.00,VWS V14.01,2013-01-25 21:26:00,
2013-01-25 16:27:00,73.7,58.4,30.27,ENE,60,0.0,0.0,59,0.00,,---,0.00,VWS V14.01,2013-01-25 21:27:00,
2013-01-25 16:28:00,73.9,58.5,30.27,ENE,60,0.0,0.0,58,0.00,,---,0.00,VWS V14.01,2013-01-25 21:28:00,
2013-01-25 16:29:00,73.6,57.3,30.27,East,83,5.8,6.7,57,0.00,,---,0.00,VWS V14.01,2013-01-25 21:29:00,
2013-01-25 16:32:00,73.4,58.1,30.28,NE,45,0.0,0.5,59,0.00,,---,0.00,VWS V14.01,2013-01-25 21:32:00,
2013-01-25 16:33:00,73.2,57.9,30.28,NE,45,0.0,0.5,59,0.00,,---,0.00,VWS V14.01,2013-01-25 21:33:00,
2013-01-25 16:34:00,73.2,58.0,30.28,East,98,2.9,2.9,59,0.00,,---,0.00,VWS V14.01,2013-01-25 21:34:00,
2013-01-25 16:37:00,72.9,57.9,30.28,ENE,75,1.7,2.3,59,0.00,,---,0.00,VWS V14.01,2013-01-25 21:37:00,
2013-01-25 16:38:00,72.8,58.0,30.28,East,82,5.5,6.0,60,0.00,,---,0.00,VWS V14.01,2013-01-25 21:38:00,
2013-01-25 16:39:00,72.7,58.0,30.28,SE,132,1.6,2.8,60,0.00,,---,0.00,VWS V14.01,2013-01-25 21:39:00,
2013-01-25 16:42:00,72.7,58.1,30.28,East,97,0.0,0.0,60,0.00,,---,0.00,VWS V14.01,2013-01-25 21:42:00,
2013-01-25 16:43:00,72.6,58.0,30.28,East,97,0.0,0.0,60,0.00,,---,0.00,VWS V14.01,2013-01-25 21:43:00,
2013-01-25 16:44:00,72.5,58.0,30.28,ESE,104,4.1,4.1,60,0.00,,---,0.00,VWS V14.01,2013-01-25 21:44:00,
2013-01-25 16:47:00,72.3,57.7,30.28,East,80,4.0,6.8,60,0.00,,---,0.00,VWS V14.01,2013-01-25 21:47:00,
2013-01-25 16:48:00,72.4,57.8,30.28,East,83,1.4,3.9,60,0.00,,---,0.00,VWS V14.01,2013-01-25 21:48:00,
2013-01-25 16:49:00,72.3,57.7,30.28,ENE,75,3.4,3.9,60,0.00,,---,0.00,VWS V14.01,2013-01-25 21:49:00,
2013-01-25 16:50:00,72.4,57.8,30.28,NNE,24,0.9,3.6,60,0.00,,---,0.00,VWS V14.01,2013-01-25 21:50:00,
2013-01-25 16:53:00,72.5,58.0,30.28,NNW,329,0.0,0.0,60,0.00,,---,0.00,VWS V14.01,2013-01-25 21:53:00,
2013-01-25 16:54:00,72.4,58.0,30.28,NNW,329,0.0,0.0,61,0.00,,---,0.00,VWS V14.01,2013-01-25 21:54:00,
2013-01-25 16:55:00,72.2,57.7,30.28,NNW,329,0.0,0.0,60,0.00,,---,0.00,VWS V14.01,2013-01-25 21:55:00,
2013-01-25 16:58:00,72.5,58.0,30.28,ENE,77,3.2,5.4,60,0.00,,---,0.00,VWS V14.01,2013-01-25 21:58:00,
2013-01-25 16:59:00,72.4,58.1,30.28,East,94,2.4,4.6,61,0.00,,---,0.00,VWS V14.01,2013-01-25 21:59:00,
2013-01-25 17:00:00,72.4,58.1,30.28,ENE,65,1.5,3.7,61,0.00,,---,0.00,VWS V14.01,2013-01-25 22:00:00,
2013-01-25 17:03:00,72.1,58.0,30.28,East,93,1.9,2.7,61,0.00,,---,0.00,VWS V14.01,2013-01-25 22:03:00,
2013-01-25 17:04:00,72.2,58.1,30.28,East,83,0.0,1.9,61,0.00,,---,0.00,VWS V14.01,2013-01-25 22:04:00,
2013-01-25 17:05:00,72.1,58.0,30.28,ESE,115,1.9,2.7,61,0.00,,---,0.00,VWS V14.01,2013-01-25 22:05:00,
2013-01-25 17:08:00,71.9,57.9,30.28,NE,56,1.0,2.7,61,0.00,,---,0.00,VWS V14.01,2013-01-25 22:08:00,
2013-01-25 17:09:00,72.0,58.0,30.28,South,191,0.5,1.4,61,0.00,,---,0.00,VWS V14.01,2013-01-25 22:09:00,
2013-01-25 17:10:00,71.9,58.0,30.28,ENE,76,5.0,5.0,62,0.00,,---,0.00,VWS V14.01,2013-01-25 22:10:00,
2013-01-25 17:13:00,71.8,58.0,30.28,NNE,27,0.8,3.3,62,0.00,,---,0.00,VWS V14.01,2013-01-25 22:13:00,
2013-01-25 17:14:00,71.9,58.0,30.28,ESE,122,1.9,2.2,62,0.00,,---,0.00,VWS V14.01,2013-01-25 22:14:00,
2013-01-25 17:15:00,72.0,58.1,30.28,West,269,0.0,1.0,62,0.00,,---,0.00,VWS V14.01,2013-01-25 22:15:00,
2013-01-25 17:18:00,72.1,58.1,30.28,East,84,0.0,0.0,61,0.00,,---,0.00,VWS V14.01,2013-01-25 22:18:00,
2013-01-25 17:19:00,72.1,58.1,30.28,NE,48,0.9,1.9,61,0.00,,---,0.00,VWS V14.01,2013-01-25 22:19:00,
2013-01-25 17:20:00,72.1,58.1,30.28,East,84,0.5,1.6,61,0.00,,---,0.00,VWS V14.01,2013-01-25 22:20:00,
2013-01-25 17:23:00,72.2,58.2,30.28,NE,51,0.0,0.0,61,0.00,,---,0.00,VWS V14.01,2013-01-25 22:23:00,
2013-01-25 17:24:00,72.1,58.0,30.28,ESE,122,2.6,3.5,61,0.00,,---,0.00,VWS V14.01,2013-01-25 22:24:00,
2013-01-25 17:25:00,72.1,58.1,30.28,ESE,110,0.0,2.9,61,0.00,,---,0.00,VWS V14.01,2013-01-25 22:25:00,
2013-01-25 17:28:00,72.0,58.0,30.28,ENE,69,0.0,0.0,61,0.00,,---,0.00,VWS V14.01,2013-01-25 22:28:00,
2013-01-25 17:29:00,72.2,58.2,30.28,ESE,111,1.4,1.4,61,0.00,,---,0.00,VWS V14.01,2013-01-25 22:29:00,
2013-01-25 17:30:00,72.1,58.1,30.28,NE,49,2.7,2.7,61,0.00,,---,0.00,VWS V14.01,2013-01-25 22:30:00,
2013-01-25 17:33:00,71.7,57.8,30.28,East,98,0.0,0.5,62,0.00,,---,0.00,VWS V14.01,2013-01-25 22:33:00,
2013-01-25 17:34:00,71.7,57.9,30.28,East,98,0.0,0.0,62,0.00,,---,0.00,VWS V14.01,2013-01-25 22:34:00,
2013-01-25 17:35:00,71.7,57.9,30.28,East,98,0.0,0.0,62,0.00,,---,0.00,VWS V14.01,2013-01-25 22:35:00,
2013-01-25 17:38:00,71.6,58.0,30.28,East,98,0.0,0.0,62,0.00,,---,0.00,VWS V14.01,2013-01-25 22:38:00,
2013-01-25 17:39:00,71.5,58.0,30.28,East,98,0.0,0.0,62,0.00,,---,0.00,VWS V14.01,2013-01-25 22:39:00,
2013-01-25 17:40:00,71.7,58.2,30.28,NE,41,3.5,3.7,62,0.00,,---,0.00,VWS V14.01,2013-01-25 22:40:00,
2013-01-25 17:43:00,71.4,57.9,30.28,NE,48,0.0,0.6,62,0.00,,---,0.00,VWS V14.01,2013-01-25 22:43:00,
2013-01-25 17:44:00,71.3,57.9,30.28,ENE,75,1.0,2.3,63,0.00,,---,0.00,VWS V14.01,2013-01-25 22:44:00,
2013-01-25 17:45:00,71.4,58.0,30.28,ENE,69,1.0,1.6,63,0.00,,---,0.00,VWS V14.01,2013-01-25 22:45:00,
2013-01-25 17:48:00,71.1,57.8,30.28,NE,42,0.0,0.0,63,0.00,,---,0.00,VWS V14.01,2013-01-25 22:48:00,
2013-01-25 17:50:00,71.0,57.8,30.28,NE,35,0.4,1.0,63,0.00,,---,0.00,VWS V14.01,2013-01-25 22:50:00,
2013-01-25 17:53:00,71.0,57.9,30.28,NE,56,0.0,0.5,63,0.00,,---,0.00,VWS V14.01,2013-01-25 22:53:00,
2013-01-25 17:55:00,70.9,57.9,30.28,East,82,1.4,1.6,63,0.00,,---,0.00,VWS V14.01,2013-01-25 22:55:00,
2013-01-25 17:58:00,70.9,58.0,30.28,East,93,0.0,0.0,64,0.00,,---,0.00,VWS V14.01,2013-01-25 22:58:00,
2013-01-25 18:00:00,70.8,58.0,30.28,NNE,20,0.0,0.0,64,0.00,,---,0.00,VWS V14.01,2013-01-25 23:00:00,
2013-01-25 18:01:00,70.8,58.0,30.28,NNE,20,0.0,0.0,64,0.00,,---,0.00,VWS V14.01,2013-01-25 23:01:00,
2013-01-25 18:03:00,70.8,58.0,30.28,NNE,20,0.0,0.0,64,0.00,,---,0.00,VWS V14.01,2013-01-25 23:03:00,
2013-01-25 18:05:00,70.5,57.8,30.28,NNE,20,0.0,0.0,64,0.00,,---,0.00,VWS V14.01,2013-01-25 23:05:00,
2013-01-25 18:06:00,70.5,57.8,30.28,NNE,20,0.0,0.0,64,0.00,,---,0.00,VWS V14.01,2013-01-25 23:06:00,
2013-01-25 18:08:00,70.5,58.0,30.28,NNE,20,0.0,0.0,64,0.00,,---,0.00,VWS V14.01,2013-01-25 23:08:00,
2013-01-25 18:10:00,70.3,57.8,30.28,NNE,20,0.0,0.0,64,0.00,,---,0.00,VWS V14.01,2013-01-25 23:10:00,
2013-01-25 18:11:00,70.4,57.9,30.28,NNE,20,0.0,0.0,65,0.00,,---,0.00,VWS V14.01,2013-01-25 23:11:00,
2013-01-25 18:13:00,70.2,57.8,30.28,NNE,20,0.0,0.0,65,0.00,,---,0.00,VWS V14.01,2013-01-25 23:13:00,
2013-01-25 18:15:00,70.1,57.8,30.28,NNE,20,0.0,0.0,65,0.00,,---,0.00,VWS V14.01,2013-01-25 23:15:00,
2013-01-25 18:16:00,70.2,57.8,30.28,NNE,20,0.0,0.0,65,0.00,,---,0.00,VWS V14.01,2013-01-25 23:16:00,
2013-01-25 18:18:00,69.9,57.7,30.28,NNE,20,0.0,0.0,65,0.00,,---,0.00,VWS V14.01,2013-01-25 23:18:00,
2013-01-25 18:20:00,70.0,57.8,30.28,NNE,20,0.0,0.0,65,0.00,,---,0.00,VWS V14.01,2013-01-25 23:20:00,
2013-01-25 18:21:00,70.0,57.8,30.28,NNE,20,0.0,0.0,65,0.00,,---,0.00,VWS V14.01,2013-01-25 23:21:00,
2013-01-25 18:24:00,70.1,58.0,30.28,NNE,20,0.0,0.0,65,0.00,,---,0.00,VWS V14.01,2013-01-25 23:24:00,
2013-01-25 18:25:00,69.9,57.8,30.28,NNE,20,0.0,0.0,65,0.00,,---,0.00,VWS V14.01,2013-01-25 23:25:00,
2013-01-25 18:26:00,70.0,57.9,30.28,NNE,20,0.0,0.0,65,0.00,,---,0.00,VWS V14.01,2013-01-25 23:26:00,
2013-01-25 18:29:00,69.7,57.7,30.28,NNE,20,0.0,0.0,66,0.00,,---,0.00,VWS V14.01,2013-01-25 23:29:00,
2013-01-25 18:30:00,69.7,57.7,30.28,NNE,20,0.0,0.0,66,0.00,,---,0.00,VWS V14.01,2013-01-25 23:30:00,
2013-01-25 18:31:00,69.7,57.8,30.28,NNE,20,0.0,0.0,66,0.00,,---,0.00,VWS V14.01,2013-01-25 23:31:00,
2013-01-25 18:34:00,69.6,57.7,30.28,NNE,20,0.0,0.0,66,0.00,,---,0.00,VWS V14.01,2013-01-25 23:34:00,
2013-01-25 18:35:00,69.5,57.7,30.28,NNE,20,0.0,0.0,66,0.00,,---,0.00,VWS V14.01,2013-01-25 23:35:00,
2013-01-25 18:36:00,69.4,57.6,30.28,NNE,20,0.0,0.0,66,0.00,,---,0.00,VWS V14.01,2013-01-25 23:36:00,
2013-01-25 18:39:00,69.5,57.7,30.28,NNE,20,0.0,0.0,66,0.00,,---,0.00,VWS V14.01,2013-01-25 23:39:00,
2013-01-25 18:40:00,69.4,57.7,30.28,NNE,20,0.0,0.0,66,0.00,,---,0.00,VWS V14.01,2013-01-25 23:40:00,
2013-01-25 18:41:00,69.4,57.7,30.28,NNE,20,0.0,0.0,66,0.00,,---,0.00,VWS V14.01,2013-01-25 23:41:00,
2013-01-25 18:44:00,69.2,57.5,30.28,NNE,20,0.0,0.0,66,0.00,,---,0.00,VWS V14.01,2013-01-25 23:44:00,
2013-01-25 18:45:00,69.3,57.6,30.28,NNE,20,0.0,0.0,66,0.00,,---,0.00,VWS V14.01,2013-01-25 23:45:00,
2013-01-25 18:46:00,69.3,57.7,30.28,NNE,20,0.0,0.0,66,0.00,,---,0.00,VWS V14.01,2013-01-25 23:46:00,
2013-01-25 18:49:00,69.3,57.8,30.28,NNE,20,0.0,0.0,67,0.00,,---,0.00,VWS V14.01,2013-01-25 23:49:00,
2013-01-25 18:50:00,69.1,57.7,30.28,NNE,20,0.0,0.0,67,0.00,,---,0.00,VWS V14.01,2013-01-25 23:50:00,
2013-01-25 18:51:00,69.1,57.7,30.28,NNE,20,0.0,0.0,67,0.00,,---,0.00,VWS V14.01,2013-01-25 23:51:00,
2013-01-25 18:54:00,69.0,57.7,30.28,NNE,20,0.0,0.0,67,0.00,,---,0.00,VWS V14.01,2013-01-25 23:54:00,
2013-01-25 18:55:00,69.0,57.8,30.28,NNE,20,0.0,0.0,67,0.00,,---,0.00,VWS V14.01,2013-01-25 23:55:00,
2013-01-25 18:56:00,68.8,57.6,30.28,NNE,20,0.0,0.0,68,0.00,,---,0.00,VWS V14.01,2013-01-25 23:56:00,
2013-01-25 18:57:00,69.0,57.8,30.28,NNE,20,0.0,0.0,68,0.00,,---,0.00,VWS V14.01,2013-01-25 23:57:00,
2013-01-25 18:59:00,68.8,57.7,30.28,NNE,20,0.0,0.0,68,0.00,,---,0.00,VWS V14.01,2013-01-25 23:59:00,
2013-01-25 19:00:00,68.6,57.5,30.28,NNE,20,0.0,0.0,68,0.00,,---,0.00,VWS V14.01,2013-01-26 00:00:00,
2013-01-25 19:01:00,68.6,57.5,30.28,NNE,20,0.0,0.0,68,0.00,,---,0.00,VWS V14.01,2013-01-26 00:01:00,
2013-01-25 19:02:00,68.6,57.5,30.28,NNE,20,0.0,0.0,68,0.00,,---,0.00,VWS V14.01,2013-01-26 00:02:00,
2013-01-25 19:04:00,68.7,57.7,30.29,NNE,20,0.0,0.0,68,0.00,,---,0.00,VWS V14.01,2013-01-26 00:04:00,
2013-01-25 19:05:00,68.5,57.5,30.29,NNE,20,0.0,0.0,68,0.00,,---,0.00,VWS V14.01,2013-01-26 00:05:00,
2013-01-25 19:06:00,68.5,57.6,30.29,NNE,20,0.0,0.0,68,0.00,,---,0.00,VWS V14.01,2013-01-26 00:06:00,
2013-01-25 19:07:00,68.6,57.7,30.29,NNE,20,0.0,0.0,68,0.00,,---,0.00,VWS V14.01,2013-01-26 00:07:00,
2013-01-25 19:09:00,68.5,57.6,30.29,NNE,20,0.0,0.0,68,0.00,,---,0.00,VWS V14.01,2013-01-26 00:09:00,
2013-01-25 19:11:00,68.5,57.7,30.29,NNE,20,0.0,0.0,68,0.00,,---,0.00,VWS V14.01,2013-01-26 00:11:00,
2013-01-25 19:12:00,68.4,57.6,30.29,NNE,20,0.0,0.0,68,0.00,,---,0.00,VWS V14.01,2013-01-26 00:12:00,
2013-01-25 19:14:00,68.3,57.5,30.29,NNE,20,0.0,0.0,68,0.00,,---,0.00,VWS V14.01,2013-01-26 00:14:00,
2013-01-25 19:16:00,68.3,57.5,30.29,NNE,20,0.0,0.0,68,0.00,,---,0.00,VWS V14.01,2013-01-26 00:16:00,
2013-01-25 19:17:00,68.4,57.6,30.29,NNE,20,0.0,0.0,68,0.00,,---,0.00,VWS V14.01,2013-01-26 00:17:00,
2013-01-25 19:19:00,68.3,57.6,30.29,NNE,20,0.0,0.0,69,0.00,,---,0.00,VWS V14.01,2013-01-26 00:19:00,
2013-01-25 19:21:00,68.3,57.6,30.29,NNE,20,0.0,0.0,69,0.00,,---,0.00,VWS V14.01,2013-01-26 00:21:00,
2013-01-25 19:22:00,68.3,57.7,30.29,NNE,20,0.0,0.0,69,0.00,,---,0.00,VWS V14.01,2013-01-26 00:22:00,
2013-01-25 19:24:00,68.1,57.5,30.29,NNE,20,0.0,0.0,69,0.00,,---,0.00,VWS V14.01,2013-01-26 00:24:00,
2013-01-25 19:26:00,68.2,57.7,30.29,NNE,20,0.0,0.0,69,0.00,,---,0.00,VWS V14.01,2013-01-26 00:26:00,
2013-01-25 19:27:00,68.0,57.5,30.29,NNE,20,0.0,0.0,69,0.00,,---,0.00,VWS V14.01,2013-01-26 00:27:00,
2013-01-25 19:29:00,68.0,57.6,30.29,NNW,347,0.0,1.0,69,0.00,,---,0.00,VWS V14.01,2013-01-26 00:29:00,
2013-01-25 19:31:00,68.1,57.8,30.29,North,3,0.0,0.0,70,0.00,,---,0.00,VWS V14.01,2013-01-26 00:31:00,
2013-01-25 19:32:00,67.9,57.7,30.29,North,3,0.0,0.0,70,0.00,,---,0.00,VWS V14.01,2013-01-26 00:32:00,
2013-01-25 19:34:00,68.0,57.8,30.29,NW,316,0.0,0.6,70,0.00,,---,0.00,VWS V14.01,2013-01-26 00:34:00,
2013-01-25 19:37:00,67.9,57.8,30.29,NNW,333,0.0,0.0,70,0.00,,---,0.00,VWS V14.01,2013-01-26 00:37:00,
2013-01-25 19:39:00,67.9,57.8,30.29,NNW,333,0.0,0.0,70,0.00,,---,0.00,VWS V14.01,2013-01-26 00:39:00,
2013-01-25 19:42:00,67.8,57.8,30.29,NNW,333,0.0,0.0,70,0.00,,---,0.00,VWS V14.01,2013-01-26 00:42:00,
2013-01-25 19:43:00,67.7,57.8,30.29,NNW,333,0.0,0.0,70,0.00,,---,0.00,VWS V14.01,2013-01-26 00:43:00,
2013-01-25 19:44:00,67.7,57.8,30.29,NNW,333,0.0,0.0,71,0.00,,---,0.00,VWS V14.01,2013-01-26 00:44:00,
2013-01-25 19:47:00,67.6,57.8,30.29,NNW,333,0.0,0.0,71,0.00,,---,0.00,VWS V14.01,2013-01-26 00:47:00,
2013-01-25 19:48:00,67.4,57.6,30.29,NNW,333,0.0,0.0,71,0.00,,---,0.00,VWS V14.01,2013-01-26 00:48:00,
2013-01-25 19:49:00,67.4,57.7,30.29,NNW,333,0.0,0.0,71,0.00,,---,0.00,VWS V14.01,2013-01-26 00:49:00,
2013-01-25 19:52:00,67.3,57.7,30.29,NNW,333,0.0,0.0,71,0.00,,---,0.00,VWS V14.01,2013-01-26 00:52:00,
2013-01-25 19:53:00,67.2,57.6,30.29,NNW,333,0.0,0.0,71,0.00,,---,0.00,VWS V14.01,2013-01-26 00:53:00,
2013-01-25 19:54:00,67.4,57.8,30.29,NNW,333,0.0,0.0,71,0.00,,---,0.00,VWS V14.01,2013-01-26 00:54:00,
2013-01-25 19:57:00,67.2,57.7,30.30,NNW,333,0.0,0.0,71,0.00,,---,0.00,VWS V14.01,2013-01-26 00:57:00,
2013-01-25 19:58:00,67.0,57.5,30.29,NNW,333,0.0,0.0,72,0.00,,---,0.00,VWS V14.01,2013-01-26 00:58:00,
2013-01-25 19:59:00,67.1,57.6,30.29,NNW,333,0.0,0.0,72,0.00,,---,0.00,VWS V14.01,2013-01-26 00:59:00,
2013-01-25 20:02:00,67.0,57.6,30.30,NNW,333,0.0,0.0,72,0.00,,---,0.00,VWS V14.01,2013-01-26 01:02:00,
2013-01-25 20:03:00,67.1,57.7,30.29,NNW,333,0.0,0.0,72,0.00,,---,0.00,VWS V14.01,2013-01-26 01:03:00,
2013-01-25 20:04:00,67.1,57.7,30.29,NNW,333,0.0,0.0,72,0.00,,---,0.00,VWS V14.01,2013-01-26 01:04:00,
2013-01-25 20:07:00,67.0,57.7,30.29,NNW,333,0.0,0.0,72,0.00,,---,0.00,VWS V14.01,2013-01-26 01:07:00,
2013-01-25 20:08:00,66.8,57.5,30.29,NNW,333,0.0,0.0,72,0.00,,---,0.00,VWS V14.01,2013-01-26 01:08:00,
2013-01-25 20:10:00,66.8,57.5,30.29,NNW,333,0.0,0.0,72,0.00,,---,0.00,VWS V14.01,2013-01-26 01:10:00,
2013-01-25 20:12:00,66.8,57.6,30.29,NNW,333,0.0,0.0,72,0.00,,---,0.00,VWS V14.01,2013-01-26 01:12:00,
2013-01-25 20:13:00,66.7,57.5,30.29,NNW,333,0.0,0.0,72,0.00,,---,0.00,VWS V14.01,2013-01-26 01:13:00,
2013-01-25 20:15:00,66.5,57.3,30.29,NNW,333,0.0,0.0,72,0.00,,---,0.00,VWS V14.01,2013-01-26 01:15:00,
2013-01-25 20:17:00,66.5,57.4,30.30,NNW,333,0.0,0.0,72,0.00,,---,0.00,VWS V14.01,2013-01-26 01:17:00,
2013-01-25 20:18:00,66.6,57.5,30.29,NNW,333,0.0,0.0,73,0.00,,---,0.00,VWS V14.01,2013-01-26 01:18:00,
2013-01-25 20:20:00,66.4,57.3,30.30,NNW,333,0.0,0.0,73,0.00,,---,0.00,VWS V14.01,2013-01-26 01:20:00,
2013-01-25 20:22:00,66.3,57.2,30.30,NNW,333,0.0,0.0,73,0.00,,---,0.00,VWS V14.01,2013-01-26 01:22:00,
2013-01-25 20:24:00,66.3,57.3,30.30,NNW,333,0.0,0.0,73,0.00,,---,0.00,VWS V14.01,2013-01-26 01:24:00,
2013-01-25 20:25:00,66.3,57.3,30.29,NNW,333,0.0,0.0,73,0.00,,---,0.00,VWS V14.01,2013-01-26 01:25:00,
2013-01-25 20:27:00,66.3,57.4,30.29,NNW,333,0.0,0.0,73,0.00,,---,0.00,VWS V14.01,2013-01-26 01:27:00,
2013-01-25 20:28:00,66.2,57.3,30.29,NNW,333,0.0,0.0,73,0.00,,---,0.00,VWS V14.01,2013-01-26 01:28:00,
2013-01-25 20:29:00,66.3,57.4,30.29,NNW,333,0.0,0.0,73,0.00,,---,0.00,VWS V14.01,2013-01-26 01:29:00,
2013-01-25 20:30:00,66.2,57.3,30.30,NNW,333,0.0,0.0,73,0.00,,---,0.00,VWS V14.01,2013-01-26 01:30:00,
2013-01-25 20:32:00,66.3,57.5,30.30,NNW,333,0.0,0.0,73,0.00,,---,0.00,VWS V14.01,2013-01-26 01:32:00,
2013-01-25 20:33:00,66.2,57.4,30.30,NNW,333,0.0,0.0,73,0.00,,---,0.00,VWS V14.01,2013-01-26 01:33:00,
2013-01-25 20:34:00,66.3,57.5,30.30,NNW,333,0.0,0.0,73,0.00,,---,0.00,VWS V14.01,2013-01-26 01:34:00,
2013-01-25 20:35:00,66.3,57.5,30.30,NNW,333,0.0,0.0,73,0.00,,---,0.00,VWS V14.01,2013-01-26 01:35:00,
2013-01-25 20:37:00,66.3,57.5,30.30,NNW,333,0.0,0.0,73,0.00,,---,0.00,VWS V14.01,2013-01-26 01:37:00,
2013-01-25 20:38:00,66.2,57.5,30.30,NNW,333,0.0,0.0,73,0.00,,---,0.00,VWS V14.01,2013-01-26 01:38:00,
2013-01-25 20:39:00,66.3,57.6,30.30,NNW,333,0.0,0.0,74,0.00,,---,0.00,VWS V14.01,2013-01-26 01:39:00,
2013-01-25 20:40:00,66.4,57.7,30.30,NNW,333,0.0,0.0,74,0.00,,---,0.00,VWS V14.01,2013-01-26 01:40:00,
2013-01-25 20:42:00,66.4,57.7,30.30,NNW,333,0.0,0.0,74,0.00,,---,0.00,VWS V14.01,2013-01-26 01:42:00,
2013-01-25 20:43:00,66.3,57.6,30.30,NNW,333,0.0,0.0,74,0.00,,---,0.00,VWS V14.01,2013-01-26 01:43:00,
2013-01-25 20:44:00,66.3,57.7,30.30,NNW,333,0.0,0.0,74,0.00,,---,0.00,VWS V14.01,2013-01-26 01:44:00,
2013-01-25 20:45:00,66.3,57.7,30.30,NNW,333,0.0,0.0,74,0.00,,---,0.00,VWS V14.01,2013-01-26 01:45:00,
2013-01-25 20:47:00,66.3,57.7,30.30,NNW,333,0.0,0.0,74,0.00,,---,0.00,VWS V14.01,2013-01-26 01:47:00,
2013-01-25 20:48:00,66.2,57.6,30.30,NNW,333,0.0,0.0,74,0.00,,---,0.00,VWS V14.01,2013-01-26 01:48:00,
2013-01-25 20:49:00,66.3,57.7,30.30,NNW,333,0.0,0.0,74,0.00,,---,0.00,VWS V14.01,2013-01-26 01:49:00,
2013-01-25 20:50:00,66.3,57.7,30.30,NNW,333,0.0,0.0,74,0.00,,---,0.00,VWS V14.01,2013-01-26 01:50:00,
2013-01-25 20:52:00,66.3,57.7,30.30,NNW,333,0.0,0.0,74,0.00,,---,0.00,VWS V14.01,2013-01-26 01:52:00,
2013-01-25 20:53:00,66.3,57.7,30.30,NNW,333,0.0,0.0,74,0.00,,---,0.00,VWS V14.01,2013-01-26 01:53:00,
2013-01-25 20:54:00,66.3,57.7,30.30,NNW,333,0.0,0.0,74,0.00,,---,0.00,VWS V14.01,2013-01-26 01:54:00,
2013-01-25 20:55:00,66.4,57.8,30.30,NNW,333,0.0,0.0,74,0.00,,---,0.00,VWS V14.01,2013-01-26 01:55:00,
2013-01-25 20:57:00,66.2,57.7,30.31,NNW,333,0.0,0.0,74,0.00,,---,0.00,VWS V14.01,2013-01-26 01:57:00,
2013-01-25 20:58:00,66.2,57.7,30.31,NNW,333,0.0,0.0,74,0.00,,---,0.00,VWS V14.01,2013-01-26 01:58:00,
2013-01-25 20:59:00,66.0,57.5,30.31,NNW,333,0.0,0.0,74,0.00,,---,0.00,VWS V14.01,2013-01-26 01:59:00,
2013-01-25 21:00:00,66.2,57.6,30.31,NNW,333,0.0,0.0,74,0.00,,---,0.00,VWS V14.01,2013-01-26 02:00:00,
2013-01-25 21:03:00,66.1,57.7,30.30,NNW,333,0.0,0.0,74,0.00,,---,0.00,VWS V14.01,2013-01-26 02:03:00,
2013-01-25 21:04:00,65.9,57.5,30.30,NNW,333,0.0,0.0,74,0.00,,---,0.00,VWS V14.01,2013-01-26 02:04:00,
2013-01-25 21:05:00,65.9,57.5,30.30,NNW,333,0.0,0.0,74,0.00,,---,0.00,VWS V14.01,2013-01-26 02:05:00,
2013-01-25 21:08:00,65.9,57.5,30.30,NNW,333,0.0,0.0,74,0.00,,---,0.00,VWS V14.01,2013-01-26 02:08:00,
2013-01-25 21:10:00,65.9,57.5,30.30,NNW,333,0.0,0.0,74,0.00,,---,0.00,VWS V14.01,2013-01-26 02:10:00,
2013-01-25 21:13:00,65.8,57.5,30.30,NNW,333,0.0,0.0,74,0.00,,---,0.00,VWS V14.01,2013-01-26 02:13:00,
2013-01-25 21:15:00,65.8,57.5,30.30,NNW,333,0.0,0.0,74,0.00,,---,0.00,VWS V14.01,2013-01-26 02:15:00,
2013-01-25 21:18:00,65.4,57.1,30.31,NNW,333,0.0,0.0,75,0.00,,---,0.00,VWS V14.01,2013-01-26 02:18:00,
2013-01-25 21:19:00,65.4,57.2,30.31,NNW,333,0.0,0.0,75,0.00,,---,0.00,VWS V14.01,2013-01-26 02:19:00,
2013-01-25 21:20:00,65.6,57.4,30.31,NNW,333,0.0,0.0,75,0.00,,---,0.00,VWS V14.01,2013-01-26 02:20:00,
2013-01-25 21:23:00,65.3,57.2,30.30,NNW,333,0.0,0.0,75,0.00,,---,0.00,VWS V14.01,2013-01-26 02:23:00,
2013-01-25 21:24:00,65.4,57.3,30.30,NNW,333,0.0,0.0,75,0.00,,---,0.00,VWS V14.01,2013-01-26 02:24:00,
2013-01-25 21:25:00,65.2,57.1,30.30,NNW,333,0.0,0.0,75,0.00,,---,0.00,VWS V14.01,2013-01-26 02:25:00,
2013-01-25 21:28:00,65.0,57.0,30.30,NNW,333,0.0,0.0,75,0.00,,---,0.00,VWS V14.01,2013-01-26 02:28:00,
2013-01-25 21:29:00,65.1,57.1,30.30,NNW,333,0.0,0.0,75,0.00,,---,0.00,VWS V14.01,2013-01-26 02:29:00,
2013-01-25 21:30:00,65.0,57.0,30.30,NNW,333,0.0,0.0,75,0.00,,---,0.00,VWS V14.01,2013-01-26 02:30:00,
2013-01-25 21:34:00,64.9,57.1,30.30,NNW,333,0.0,0.0,76,0.00,,---,0.00,VWS V14.01,2013-01-26 02:34:00,
2013-01-25 21:35:00,64.9,57.1,30.30,NNW,333,0.0,0.0,76,0.00,,---,0.00,VWS V14.01,2013-01-26 02:35:00,
2013-01-25 21:36:00,64.9,57.1,30.30,NNW,333,0.0,0.0,76,0.00,,---,0.00,VWS V14.01,2013-01-26 02:36:00,
2013-01-25 21:39:00,64.8,57.1,30.31,NNW,333,0.0,0.0,76,0.00,,---,0.00,VWS V14.01,2013-01-26 02:39:00,
2013-01-25 21:40:00,64.7,57.0,30.31,NNW,333,0.0,0.0,76,0.00,,---,0.00,VWS V14.01,2013-01-26 02:40:00,
2013-01-25 21:41:00,64.7,57.0,30.31,NNW,333,0.0,0.0,76,0.00,,---,0.00,VWS V14.01,2013-01-26 02:41:00,
2013-01-25 21:44:00,64.7,57.1,30.30,NNW,333,0.0,0.0,76,0.00,,---,0.00,VWS V14.01,2013-01-26 02:44:00,
2013-01-25 21:46:00,64.7,57.2,30.30,NNW,333,0.0,0.0,77,0.00,,---,0.00,VWS V14.01,2013-01-26 02:46:00,
2013-01-25 21:49:00,64.6,57.2,30.30,NNW,333,0.0,0.0,77,0.00,,---,0.00,VWS V14.01,2013-01-26 02:49:00,
2013-01-25 21:51:00,64.4,57.0,30.30,NNW,333,0.0,0.0,77,0.00,,---,0.00,VWS V14.01,2013-01-26 02:51:00,
2013-01-25 21:54:00,64.3,57.1,30.30,NNW,333,0.0,0.0,77,0.00,,---,0.00,VWS V14.01,2013-01-26 02:54:00,
2013-01-25 21:56:00,64.4,57.2,30.30,NNW,333,0.0,0.0,77,0.00,,---,0.00,VWS V14.01,2013-01-26 02:56:00,
2013-01-25 21:59:00,64.3,57.1,30.31,NNW,333,0.0,0.0,77,0.00,,---,0.00,VWS V14.01,2013-01-26 02:59:00,
2013-01-25 22:00:00,64.1,56.9,30.31,NNW,333,0.0,0.0,77,0.00,,---,0.00,VWS V14.01,2013-01-26 03:00:00,
2013-01-25 22:01:00,64.2,57.0,30.31,NNW,333,0.0,0.0,78,0.00,,---,0.00,VWS V14.01,2013-01-26 03:01:00,
2013-01-25 22:04:00,63.9,56.8,30.30,NNW,333,0.0,0.0,78,0.00,,---,0.00,VWS V14.01,2013-01-26 03:04:00,
2013-01-25 22:05:00,64.1,57.0,30.30,NNW,333,0.0,0.0,78,0.00,,---,0.00,VWS V14.01,2013-01-26 03:05:00,
2013-01-25 22:06:00,63.9,56.8,30.30,NNW,333,0.0,0.0,78,0.00,,---,0.00,VWS V14.01,2013-01-26 03:06:00,
2013-01-25 22:09:00,64.1,57.1,30.30,NNW,333,0.0,0.0,78,0.00,,---,0.00,VWS V14.01,2013-01-26 03:09:00,
2013-01-25 22:10:00,64.0,57.0,30.30,NNW,333,0.0,0.0,78,0.00,,---,0.00,VWS V14.01,2013-01-26 03:10:00,
2013-01-25 22:11:00,63.7,56.8,30.30,NNW,333,0.0,0.0,78,0.00,,---,0.00,VWS V14.01,2013-01-26 03:11:00,
2013-01-25 22:14:00,64.0,57.2,30.30,NNW,333,0.0,0.0,78,0.00,,---,0.00,VWS V14.01,2013-01-26 03:14:00,
2013-01-25 22:15:00,63.9,57.1,30.30,NNW,333,0.0,0.0,78,0.00,,---,0.00,VWS V14.01,2013-01-26 03:15:00,
2013-01-25 22:16:00,63.7,56.9,30.30,NNW,333,0.0,0.0,78,0.00,,---,0.00,VWS V14.01,2013-01-26 03:16:00,
2013-01-25 22:19:00,64.0,57.3,30.31,NNW,333,0.0,0.0,79,0.00,,---,0.00,VWS V14.01,2013-01-26 03:19:00,
2013-01-25 22:20:00,64.0,57.3,30.31,NNW,333,0.0,0.0,79,0.00,,---,0.00,VWS V14.01,2013-01-26 03:20:00,
2013-01-25 22:21:00,63.9,57.2,30.31,NNW,333,0.0,0.0,79,0.00,,---,0.00,VWS V14.01,2013-01-26 03:21:00,
2013-01-25 22:22:00,63.9,57.2,30.31,NNW,333,0.0,0.0,79,0.00,,---,0.00,VWS V14.01,2013-01-26 03:22:00,
2013-01-25 22:24:00,63.9,57.3,30.31,NNW,333,0.0,0.0,79,0.00,,---,0.00,VWS V14.01,2013-01-26 03:24:00,
2013-01-25 22:25:00,63.9,57.3,30.31,NNW,333,0.0,0.0,79,0.00,,---,0.00,VWS V14.01,2013-01-26 03:25:00,
2013-01-25 22:26:00,64.1,57.5,30.30,NNW,333,0.0,0.0,79,0.00,,---,0.00,VWS V14.01,2013-01-26 03:26:00,
2013-01-25 22:27:00,63.9,57.3,30.30,NNW,333,0.0,0.0,79,0.00,,---,0.00,VWS V14.01,2013-01-26 03:27:00,
2013-01-25 22:29:00,63.8,57.2,30.30,NNW,333,0.0,0.0,79,0.00,,---,0.00,VWS V14.01,2013-01-26 03:29:00,
2013-01-25 22:30:00,63.8,57.2,30.30,NNW,333,0.0,0.0,79,0.00,,---,0.00,VWS V14.01,2013-01-26 03:30:00,
2013-01-25 22:31:00,63.7,57.2,30.30,NNW,333,0.0,0.0,80,0.00,,---,0.00,VWS V14.01,2013-01-26 03:31:00,
2013-01-25 22:32:00,64.0,57.5,30.30,NNW,333,0.0,0.0,80,0.00,,---,0.00,VWS V14.01,2013-01-26 03:32:00,
2013-01-25 22:34:00,63.8,57.3,30.31,NNW,333,0.0,0.0,80,0.00,,---,0.00,VWS V14.01,2013-01-26 03:34:00,
2013-01-25 22:35:00,63.8,57.4,30.31,NNW,333,0.0,0.0,80,0.00,,---,0.00,VWS V14.01,2013-01-26 03:35:00,
2013-01-25 22:36:00,63.7,57.3,30.31,NNW,333,0.0,0.0,80,0.00,,---,0.00,VWS V14.01,2013-01-26 03:36:00,
2013-01-25 22:37:00,63.9,57.5,30.31,NNW,333,0.0,0.0,80,0.00,,---,0.00,VWS V14.01,2013-01-26 03:37:00,
2013-01-25 22:39:00,63.8,57.4,30.31,NNW,333,0.0,0.0,80,0.00,,---,0.00,VWS V14.01,2013-01-26 03:39:00,
2013-01-25 22:40:00,63.8,57.4,30.31,NNW,333,0.0,0.0,80,0.00,,---,0.00,VWS V14.01,2013-01-26 03:40:00,
2013-01-25 22:41:00,63.6,57.3,30.31,NNW,333,0.0,0.0,80,0.00,,---,0.00,VWS V14.01,2013-01-26 03:41:00,
2013-01-25 22:42:00,63.6,57.3,30.31,NNW,333,0.0,0.0,80,0.00,,---,0.00,VWS V14.01,2013-01-26 03:42:00,
2013-01-25 22:44:00,63.5,57.2,30.31,NNW,333,0.0,0.0,80,0.00,,---,0.00,VWS V14.01,2013-01-26 03:44:00,
2013-01-25 22:45:00,63.5,57.3,30.30,NNW,333,0.0,0.0,80,0.00,,---,0.00,VWS V14.01,2013-01-26 03:45:00,
2013-01-25 22:46:00,63.5,57.3,30.30,NNW,333,0.0,0.0,80,0.00,,---,0.00,VWS V14.01,2013-01-26 03:46:00,
2013-01-25 22:47:00,63.4,57.2,30.30,NNW,333,0.0,0.0,80,0.00,,---,0.00,VWS V14.01,2013-01-26 03:47:00,
2013-01-25 22:50:00,63.5,57.3,30.30,NNW,333,0.0,0.0,80,0.00,,---,0.00,VWS V14.01,2013-01-26 03:50:00,
2013-01-25 22:51:00,63.6,57.4,30.30,NNW,333,0.0,0.0,80,0.00,,---,0.00,VWS V14.01,2013-01-26 03:51:00,
2013-01-25 22:52:00,63.5,57.3,30.30,NNW,333,0.0,0.0,80,0.00,,---,0.00,VWS V14.01,2013-01-26 03:52:00,
2013-01-25 22:55:00,63.7,57.6,30.31,NNW,342,2.3,2.4,80,0.00,,---,0.00,VWS V14.01,2013-01-26 03:55:00,
2013-01-25 22:57:00,63.8,57.8,30.31,NW,325,2.1,2.1,81,0.00,,---,0.00,VWS V14.01,2013-01-26 03:57:00,
2013-01-25 23:00:00,64.1,58.0,30.31,North,350,0.0,0.8,81,0.00,,---,0.00,VWS V14.01,2013-01-26 04:00:00,
2013-01-25 23:02:00,64.1,58.0,30.31,NNW,346,0.6,1.1,81,0.00,,---,0.00,VWS V14.01,2013-01-26 04:02:00,
2013-01-25 23:05:00,64.2,58.1,30.31,NNW,339,0.0,0.0,80,0.00,,---,0.00,VWS V14.01,2013-01-26 04:05:00,
2013-01-25 23:07:00,64.0,57.8,30.30,NNW,339,0.0,0.0,80,0.00,,---,0.00,VWS V14.01,2013-01-26 04:07:00,
2013-01-25 23:10:00,64.2,58.0,30.30,NNW,339,0.0,0.0,80,0.00,,---,0.00,VWS V14.01,2013-01-26 04:10:00,
2013-01-25 23:12:00,64.3,58.1,30.30,NW,308,1.0,1.4,80,0.00,,---,0.00,VWS V14.01,2013-01-26 04:12:00,
2013-01-25 23:15:00,64.4,58.1,30.30,West,281,0.0,0.0,80,0.00,,---,0.00,VWS V14.01,2013-01-26 04:15:00,
2013-01-25 23:17:00,64.4,58.1,30.30,West,274,0.3,0.9,80,0.00,,---,0.00,VWS V14.01,2013-01-26 04:17:00,
2013-01-25 23:18:00,64.4,58.1,30.30,West,264,0.0,0.9,80,0.00,,---,0.00,VWS V14.01,2013-01-26 04:18:00,
2013-01-25 23:20:00,64.4,58.1,30.30,West,264,0.0,0.0,80,0.00,,---,0.00,VWS V14.01,2013-01-26 04:20:00,
2013-01-25 23:22:00,64.4,58.0,30.30,West,264,0.0,0.0,80,0.00,,---,0.00,VWS V14.01,2013-01-26 04:22:00,
2013-01-25 23:23:00,64.6,58.2,30.31,West,264,0.0,0.0,80,0.00,,---,0.00,VWS V14.01,2013-01-26 04:23:00,
2013-01-25 23:25:00,64.5,58.1,30.31,West,264,0.0,0.0,80,0.00,,---,0.00,VWS V14.01,2013-01-26 04:25:00,
2013-01-25 23:26:00,64.6,58.2,30.30,West,264,0.0,0.0,80,0.00,,---,0.00,VWS V14.01,2013-01-26 04:26:00,
2013-01-25 23:27:00,64.5,58.1,30.30,West,264,0.0,0.0,80,0.00,,---,0.00,VWS V14.01,2013-01-26 04:27:00,
2013-01-25 23:28:00,64.6,58.2,30.30,West,264,0.0,0.0,80,0.00,,---,0.00,VWS V14.01,2013-01-26 04:28:00,
2013-01-25 23:30:00,64.5,58.1,30.30,West,264,0.0,0.0,80,0.00,,---,0.00,VWS V14.01,2013-01-26 04:30:00,
2013-01-25 23:31:00,64.7,58.3,30.30,West,264,0.0,0.0,80,0.00,,---,0.00,VWS V14.01,2013-01-26 04:31:00,
2013-01-25 23:32:00,64.6,58.1,30.30,West,264,0.0,0.0,80,0.00,,---,0.00,VWS V14.01,2013-01-26 04:32:00,
2013-01-25 23:33:00,64.6,58.1,30.30,West,264,0.0,0.0,80,0.00,,---,0.00,VWS V14.01,2013-01-26 04:33:00,
2013-01-25 23:35:00,64.5,58.0,30.30,NW,308,1.1,1.5,80,0.00,,---,0.00,VWS V14.01,2013-01-26 04:35:00,
2013-01-25 23:36:00,64.5,58.0,30.30,NW,315,1.7,1.8,80,0.00,,---,0.00,VWS V14.01,2013-01-26 04:36:00,
2013-01-25 23:37:00,64.5,58.0,30.31,NW,314,0.7,1.6,79,0.00,,---,0.00,VWS V14.01,2013-01-26 04:37:00,
2013-01-25 23:38:00,64.6,58.0,30.30,WNW,288,1.2,1.4,79,0.00,,---,0.00,VWS V14.01,2013-01-26 04:38:00,
2013-01-25 23:40:00,64.8,58.2,30.30,WNW,295,0.0,0.0,79,0.00,,---,0.00,VWS V14.01,2013-01-26 04:40:00,
2013-01-25 23:41:00,64.7,58.1,30.30,WNW,295,0.0,0.0,79,0.00,,---,0.00,VWS V14.01,2013-01-26 04:41:00,
2013-01-25 23:42:00,64.6,58.0,30.30,NW,309,0.0,1.2,79,0.00,,---,0.00,VWS V14.01,2013-01-26 04:42:00,
2013-01-25 23:43:00,64.7,58.1,30.30,West,276,0.4,0.4,79,0.00,,---,0.00,VWS V14.01,2013-01-26 04:43:00,
2013-01-25 23:45:00,64.8,58.2,30.30,West,276,0.0,0.0,79,0.00,,---,0.00,VWS V14.01,2013-01-26 04:45:00,
2013-01-25 23:46:00,64.8,58.2,30.30,West,276,0.0,0.0,79,0.00,,---,0.00,VWS V14.01,2013-01-26 04:46:00,
2013-01-25 23:59:00,64.9,58.1,30.30,WNW,291,0.4,3.2,79,0.00,,---,0.00,VWS V14.01,2013-01-26 04:59:00,